GEFSMA_prec_meanprecacc_162.txt.gz
Total_Precipitation_Accumulation
1.86 1.97 1.81 1.69 1.49 1.70 1.97 2.05 1.88 2.07 2.07 2.10 2.08 2.08 2.10 1.85 1.69 1.59 1.61 1.79 1.73 1.70 1.80 1.85 1.79 1.77 1.69 1.50 1.34 1.15 0.99 0.93 0.84 0.74 0.66 0.57 0.50 0.41 0.37 0.26 0.19 0.13 0.11
1.70 1.76 1.69 1.61 1.57 1.68 1.86 1.89 1.90 2.14 2.23 2.20 1.91 1.81 1.81 1.85 1.76 1.59 1.71 1.81 1.85 1.69 1.76 2.00 2.07 2.04 2.03 1.85 1.62 1.43 1.25 1.09 0.89 0.70 0.62 0.60 0.52 0.45 0.48 0.48 0.50 0.23 0.12
1.42 1.51 1.53 1.48 1.54 1.59 1.59 1.57 1.65 1.85 1.85 1.80 1.65 1.57 1.61 1.65 1.72 1.71 1.58 1.61 1.73 1.81 1.75 1.88 2.02 2.05 2.17 2.15 1.99 1.73 1.51 1.27 1.00 0.72 0.57 0.55 0.51 0.40 0.39 0.46 0.50 0.30 0.16
1.18 1.25 1.19 1.19 1.21 1.24 1.25 1.31 1.36 1.52 1.64 1.72 1.70 1.57 1.70 1.76 1.66 1.75 1.72 1.63 1.81 1.70 1.94 2.08 2.06 2.00 2.19 2.40 2.47 2.24 1.88 1.47 1.15 0.89 0.69 0.58 0.53 0.44 0.37 0.36 0.37 0.33 0.22
1.10 1.11 1.10 1.10 0.96 1.00 1.03 0.99 1.14 1.32 1.48 1.53 1.40 1.49 1.45 1.47 1.47 1.43 1.62 1.49 1.59 1.71 1.88 1.98 2.08 2.01 2.26 2.67 3.04 3.10 2.69 2.02 1.51 1.22 1.06 0.91 0.76 0.60 0.49 0.46 0.40 0.35 0.30
1.11 1.01 0.95 0.88 0.78 0.86 0.96 1.04 1.25 1.26 1.24 1.28 1.19 1.34 1.29 1.15 1.22 1.27 1.27 1.34 1.41 1.33 1.57 1.78 1.95 1.69 2.03 2.57 2.95 3.23 3.29 2.92 2.28 1.76 1.51 1.37 1.22 0.90 0.59 0.50 0.48 0.44 0.37
1.10 1.01 0.90 0.95 0.81 0.80 0.82 0.81 0.93 1.00 0.99 1.04 1.26 1.33 1.17 1.03 1.06 1.08 1.06 1.18 1.25 1.28 1.59 1.86 1.92 1.83 1.65 1.68 1.80 2.27 2.89 3.26 3.03 2.44 1.97 1.70 1.55 1.21 0.82 0.63 0.54 0.52 0.47
1.02 0.92 0.95 0.91 0.84 0.86 0.82 0.80 0.89 0.94 0.94 0.98 1.11 1.24 1.16 1.19 1.10 0.89 1.08 1.13 1.15 1.34 1.51 1.60 1.79 1.94 1.67 1.72 1.28 1.50 2.13 2.65 3.09 3.04 2.53 2.00 1.76 1.52 1.19 0.93 0.72 0.62 0.58
0.91 0.91 0.89 0.92 0.92 0.78 0.78 0.82 0.80 0.83 0.85 0.85 0.88 1.04 1.08 1.11 1.00 0.90 0.97 1.01 1.11 1.29 1.35 1.47 1.37 1.46 1.59 1.73 1.62 1.33 1.58 1.82 2.48 3.16 3.10 2.51 1.99 1.63 1.44 1.31 1.17 0.95 0.80
0.90 0.83 0.83 0.93 0.91 0.79 0.85 0.67 0.68 0.79 0.83 0.72 0.69 0.71 0.72 0.85 0.96 1.05 1.01 0.99 1.03 1.08 1.13 1.17 1.18 1.25 1.32 1.53 1.64 1.26 1.03 1.22 1.80 2.62 3.08 2.86 2.34 1.82 1.60 1.65 1.88 1.79 1.38
1.13 0.92 0.81 0.89 0.93 0.89 0.93 0.83 0.90 0.77 0.70 0.64 0.62 0.68 0.71 0.66 0.66 0.87 1.03 1.03 1.00 0.84 0.85 0.91 0.96 1.01 1.08 1.25 1.45 1.12 0.87 0.95 1.19 1.66 2.10 2.35 2.32 2.16 1.98 2.02 2.45 2.70 2.50
1.16 1.07 0.97 1.04 1.04 0.97 0.96 0.90 0.94 0.88 0.81 0.76 0.65 0.64 0.83 0.78 0.64 0.74 0.76 0.83 0.83 0.66 0.72 0.82 0.83 0.89 0.96 1.11 1.08 0.97 1.04 1.11 1.05 1.05 1.23 1.49 1.76 1.91 2.02 2.17 2.43 2.76 2.87
0.99 1.03 1.10 1.15 1.09 1.09 1.02 0.98 0.98 0.97 1.02 1.01 0.82 0.65 0.65 0.74 0.69 0.67 0.69 0.68 0.71 0.68 0.74 0.74 0.78 0.95 1.05 1.33 1.32 1.17 1.18 1.23 1.08 0.98 0.94 0.99 1.12 1.29 1.45 1.65 1.96 2.29 2.60
1.04 1.11 1.17 1.08 1.02 1.02 0.99 1.02 0.94 0.89 0.95 1.01 0.93 0.97 0.89 0.70 0.79 0.79 0.80 0.90 0.93 0.94 0.99 1.00 1.10 1.22 1.36 1.45 1.52 1.31 1.12 1.03 0.84 0.79 0.76 0.74 0.77 0.86 0.97 1.07 1.21 1.42 1.60
1.06 1.06 0.99 0.96 0.98 1.00 1.04 1.07 1.03 0.98 1.00 0.89 0.87 1.06 1.03 0.84 0.83 0.85 0.88 1.00 1.20 1.18 1.14 1.23 1.41 1.54 1.45 1.43 1.43 1.31 1.15 1.00 0.84 0.73 0.69 0.67 0.68 0.71 0.74 0.75 0.78 0.88 0.97
1.03 1.03 0.98 0.93 0.94 0.89 0.91 1.01 0.98 1.02 1.08 1.03 0.99 1.04 1.08 1.05 1.00 0.99 1.02 1.07 1.20 1.24 1.26 1.30 1.52 1.62 1.42 1.23 1.30 1.32 1.18 1.10 0.92 0.79 0.70 0.70 0.72 0.73 0.70 0.68 0.64 0.62 0.64
1.02 1.02 1.00 1.03 1.00 0.95 0.92 0.96 0.94 1.01 1.08 1.17 1.19 1.14 1.12 1.21 1.24 1.16 1.15 1.17 1.25 1.37 1.42 1.43 1.55 1.55 1.40 1.19 1.15 1.18 1.18 1.18 1.02 0.95 0.80 0.73 0.70 0.68 0.65 0.66 0.67 0.62 0.56
1.05 1.00 0.99 1.05 0.99 0.95 0.97 0.91 0.90 0.96 1.06 1.15 1.24 1.37 1.38 1.33 1.29 1.24 1.26 1.28 1.37 1.56 1.60 1.57 1.57 1.59 1.49 1.33 1.24 1.14 1.03 1.01 1.00 1.04 0.89 0.77 0.70 0.67 0.64 0.61 0.59 0.56 0.53
1.12 1.11 1.06 1.05 1.05 1.05 1.06 0.96 0.92 0.93 0.96 0.98 1.09 1.34 1.55 1.70 1.58 1.41 1.32 1.30 1.36 1.48 1.64 1.59 1.57 1.69 1.66 1.52 1.39 1.20 1.07 1.04 0.90 0.92 0.92 0.84 0.74 0.67 0.63 0.59 0.58 0.56 0.52
1.10 1.17 1.19 1.18 1.15 1.11 1.06 1.04 1.09 1.07 1.03 0.96 0.98 1.09 1.23 1.42 1.56 1.63 1.50 1.37 1.36 1.48 1.64 1.68 1.76 1.99 2.01 1.84 1.58 1.36 1.24 1.11 0.96 0.79 0.80 0.79 0.74 0.67 0.64 0.62 0.58 0.56 0.55
1.16 1.30 1.35 1.32 1.29 1.24 1.13 1.18 1.26 1.16 1.16 1.10 1.06 1.04 1.01 1.10 1.24 1.39 1.43 1.53 1.55 1.54 1.64 1.73 1.94 2.35 2.35 2.07 1.66 1.43 1.36 1.29 1.11 0.94 0.86 0.75 0.70 0.64 0.64 0.67 0.66 0.62 0.56
1.51 1.55 1.50 1.45 1.43 1.30 1.35 1.31 1.28 1.25 1.28 1.27 1.23 1.16 1.07 1.01 1.04 1.13 1.20 1.30 1.44 1.50 1.54 1.62 1.81 2.11 2.26 2.13 1.85 1.63 1.43 1.31 1.20 1.09 1.00 0.94 0.82 0.77 0.70 0.64 0.69 0.67 0.63
1.55 1.59 1.63 1.63 1.60 1.67 1.58 1.32 1.26 1.25 1.29 1.33 1.39 1.40 1.17 0.99 1.04 1.02 1.10 1.13 1.15 1.26 1.37 1.46 1.62 1.83 2.13 2.24 2.09 1.72 1.57 1.43 1.21 1.08 1.05 1.01 0.92 0.83 0.74 0.69 0.73 0.62 0.59
1.39 1.36 1.34 1.33 1.40 1.40 1.34 1.15 1.09 1.03 1.12 1.16 1.17 1.19 1.16 1.03 0.97 0.96 0.97 0.95 0.92 0.94 1.01 1.09 1.23 1.48 1.78 2.12 2.28 2.04 1.84 1.64 1.40 1.21 1.04 1.03 1.00 0.89 0.77 0.69 0.74 0.65 0.55
1.20 1.13 1.12 1.14 1.17 1.22 1.20 1.06 1.01 0.93 0.96 0.97 0.96 1.00 1.03 0.95 0.91 0.79 0.78 0.81 0.80 0.79 0.78 0.81 0.90 1.07 1.33 1.64 1.97 2.09 1.81 1.47 1.32 1.13 0.99 0.91 0.87 0.89 0.86 0.72 0.69 0.71 0.59
1.30 1.25 1.20 1.18 1.19 1.28 1.33 1.13 1.04 0.96 0.98 0.99 1.08 1.10 1.06 0.93 0.83 0.67 0.66 0.71 0.70 0.67 0.69 0.70 0.69 0.76 0.88 1.13 1.48 1.63 1.65 1.40 1.16 1.04 0.80 0.73 0.70 0.72 0.77 0.66 0.53 0.52 0.52

GEFSMA_prec_meanprecacc_168.txt.gz
Total_Precipitation_Accumulation
1.92 2.02 1.86 1.73 1.52 1.73 2.01 2.10 1.92 2.12 2.13 2.13 2.09 2.10 2.13 1.88 1.72 1.61 1.64 1.80 1.76 1.73 1.86 1.90 1.84 1.82 1.74 1.55 1.39 1.19 1.02 0.94 0.85 0.76 0.68 0.59 0.53 0.45 0.41 0.28 0.22 0.16 0.13
1.76 1.81 1.74 1.67 1.61 1.72 1.91 1.93 1.93 2.18 2.28 2.24 1.94 1.83 1.83 1.88 1.78 1.61 1.74 1.84 1.88 1.72 1.80 2.04 2.13 2.10 2.09 1.92 1.69 1.49 1.28 1.10 0.90 0.72 0.64 0.62 0.55 0.48 0.51 0.52 0.53 0.25 0.14
1.49 1.58 1.59 1.54 1.59 1.62 1.64 1.63 1.69 1.89 1.89 1.84 1.69 1.60 1.64 1.69 1.76 1.75 1.61 1.65 1.77 1.84 1.77 1.92 2.08 2.11 2.23 2.21 2.06 1.78 1.54 1.29 1.02 0.74 0.59 0.57 0.53 0.43 0.42 0.49 0.53 0.33 0.19
1.24 1.31 1.23 1.24 1.27 1.29 1.29 1.37 1.42 1.58 1.70 1.78 1.78 1.63 1.74 1.81 1.71 1.80 1.75 1.66 1.87 1.75 1.99 2.12 2.10 2.06 2.26 2.48 2.54 2.30 1.93 1.51 1.19 0.93 0.72 0.61 0.56 0.47 0.39 0.38 0.39 0.35 0.23
1.15 1.17 1.16 1.16 1.03 1.07 1.08 1.03 1.20 1.40 1.58 1.65 1.48 1.56 1.49 1.52 1.52 1.46 1.64 1.52 1.64 1.75 1.93 2.02 2.13 2.06 2.33 2.75 3.13 3.19 2.76 2.10 1.57 1.27 1.11 0.96 0.82 0.64 0.52 0.49 0.42 0.37 0.32
1.16 1.08 1.01 0.96 0.86 0.94 1.05 1.12 1.35 1.35 1.32 1.39 1.24 1.40 1.34 1.18 1.26 1.32 1.31 1.38 1.44 1.35 1.59 1.82 2.01 1.74 2.09 2.64 3.05 3.33 3.39 3.01 2.35 1.82 1.57 1.43 1.28 0.95 0.63 0.53 0.50 0.46 0.40
1.13 1.07 0.96 1.03 0.89 0.88 0.91 0.90 1.03 1.09 1.07 1.11 1.35 1.42 1.24 1.06 1.10 1.13 1.10 1.23 1.28 1.30 1.61 1.92 2.01 1.94 1.72 1.73 1.87 2.34 2.98 3.36 3.13 2.54 2.07 1.78 1.62 1.27 0.87 0.67 0.58 0.55 0.50
1.07 0.97 1.03 1.00 0.92 0.94 0.90 0.89 1.00 1.05 1.02 1.05 1.19 1.32 1.23 1.26 1.15 0.91 1.11 1.17 1.19 1.37 1.55 1.65 1.86 2.04 1.75 1.81 1.35 1.54 2.19 2.73 3.20 3.17 2.63 2.09 1.84 1.59 1.24 0.98 0.77 0.66 0.62
0.95 0.96 0.97 1.00 1.00 0.84 0.87 0.93 0.91 0.95 0.95 0.93 0.95 1.13 1.16 1.21 1.08 0.95 1.00 1.04 1.14 1.34 1.40 1.50 1.40 1.52 1.65 1.80 1.69 1.37 1.61 1.87 2.56 3.27 3.19 2.59 2.07 1.70 1.49 1.37 1.23 1.01 0.86
0.93 0.87 0.89 1.02 1.00 0.87 0.95 0.76 0.77 0.90 0.95 0.82 0.77 0.79 0.81 0.96 1.07 1.12 1.05 1.01 1.06 1.12 1.16 1.20 1.22 1.29 1.37 1.60 1.71 1.30 1.08 1.27 1.86 2.69 3.18 2.98 2.46 1.93 1.68 1.73 1.95 1.86 1.45
1.18 0.97 0.89 0.99 1.05 0.99 1.02 0.92 1.01 0.90 0.82 0.75 0.72 0.77 0.81 0.77 0.76 0.98 1.11 1.08 1.03 0.87 0.90 0.96 1.00 1.05 1.12 1.32 1.54 1.16 0.90 1.00 1.25 1.72 2.19 2.46 2.45 2.28 2.10 2.15 2.58 2.86 2.66
1.23 1.15 1.05 1.14 1.15 1.06 1.06 1.00 1.03 0.98 0.92 0.88 0.76 0.73 0.93 0.89 0.75 0.88 0.87 0.91 0.90 0.71 0.76 0.85 0.87 0.94 1.01 1.17 1.13 1.00 1.06 1.14 1.10 1.10 1.28 1.56 1.84 2.01 2.15 2.31 2.57 2.92 3.03
1.07 1.13 1.17 1.24 1.18 1.17 1.10 1.07 1.07 1.06 1.13 1.12 0.93 0.75 0.75 0.86 0.83 0.81 0.81 0.77 0.79 0.74 0.79 0.76 0.80 0.98 1.09 1.37 1.36 1.20 1.20 1.27 1.13 1.03 0.98 1.03 1.16 1.35 1.52 1.74 2.07 2.45 2.80
1.09 1.18 1.24 1.15 1.10 1.10 1.06 1.10 1.01 0.96 1.03 1.10 1.01 1.08 1.01 0.81 0.90 0.91 0.92 1.02 1.04 1.03 1.05 1.04 1.13 1.27 1.41 1.50 1.58 1.35 1.15 1.07 0.89 0.84 0.82 0.80 0.84 0.92 1.05 1.15 1.31 1.54 1.74
1.11 1.12 1.05 1.02 1.04 1.06 1.11 1.16 1.09 1.04 1.06 0.96 0.97 1.20 1.15 0.92 0.90 0.94 0.99 1.12 1.33 1.30 1.24 1.32 1.49 1.60 1.50 1.48 1.48 1.36 1.19 1.06 0.88 0.77 0.74 0.73 0.74 0.76 0.80 0.83 0.86 0.97 1.06
1.08 1.09 1.04 1.01 1.01 0.95 0.98 1.10 1.06 1.08 1.13 1.10 1.09 1.14 1.17 1.11 1.06 1.06 1.10 1.17 1.33 1.38 1.36 1.38 1.59 1.69 1.49 1.28 1.35 1.36 1.22 1.14 0.95 0.82 0.75 0.74 0.76 0.77 0.75 0.73 0.70 0.70 0.73
1.06 1.07 1.06 1.09 1.05 1.00 1.00 1.05 1.03 1.08 1.14 1.24 1.28 1.24 1.23 1.30 1.32 1.23 1.23 1.26 1.35 1.49 1.52 1.51 1.64 1.65 1.49 1.28 1.24 1.26 1.24 1.23 1.07 1.00 0.85 0.78 0.74 0.72 0.69 0.72 0.75 0.72 0.67
1.09 1.04 1.02 1.09 1.03 1.01 1.04 0.99 0.99 1.06 1.16 1.24 1.32 1.45 1.46 1.42 1.38 1.32 1.34 1.36 1.46 1.66 1.70 1.65 1.66 1.68 1.58 1.43 1.34 1.24 1.11 1.10 1.08 1.12 0.95 0.82 0.74 0.72 0.69 0.66 0.65 0.64 0.62
1.16 1.14 1.08 1.08 1.08 1.10 1.11 1.01 0.98 0.99 1.01 1.03 1.14 1.40 1.62 1.80 1.70 1.52 1.43 1.40 1.47 1.59 1.74 1.68 1.67 1.78 1.75 1.61 1.47 1.28 1.14 1.10 0.96 0.98 0.97 0.88 0.78 0.72 0.67 0.63 0.62 0.61 0.58
1.13 1.19 1.22 1.20 1.18 1.14 1.09 1.07 1.11 1.10 1.07 1.00 1.02 1.14 1.28 1.48 1.64 1.72 1.58 1.45 1.44 1.57 1.73 1.77 1.86 2.09 2.11 1.93 1.67 1.45 1.33 1.19 1.04 0.86 0.87 0.85 0.79 0.72 0.69 0.66 0.63 0.60 0.60
1.19 1.32 1.38 1.36 1.33 1.28 1.17 1.22 1.29 1.19 1.19 1.14 1.10 1.09 1.06 1.15 1.28 1.42 1.47 1.57 1.59 1.60 1.71 1.81 2.01 2.43 2.43 2.17 1.76 1.53 1.44 1.37 1.20 1.02 0.93 0.82 0.76 0.70 0.70 0.73 0.71 0.66 0.61
1.54 1.59 1.54 1.51 1.49 1.35 1.39 1.34 1.31 1.29 1.32 1.31 1.27 1.20 1.11 1.05 1.08 1.16 1.23 1.33 1.47 1.54 1.59 1.70 1.89 2.19 2.34 2.20 1.93 1.70 1.51 1.38 1.28 1.18 1.09 1.02 0.88 0.82 0.74 0.67 0.73 0.72 0.69
1.59 1.65 1.71 1.71 1.69 1.74 1.64 1.36 1.29 1.29 1.34 1.38 1.43 1.43 1.19 1.02 1.07 1.05 1.14 1.16 1.19 1.30 1.41 1.51 1.68 1.89 2.20 2.30 2.14 1.77 1.62 1.50 1.29 1.17 1.12 1.08 0.97 0.87 0.76 0.72 0.76 0.65 0.63
1.42 1.39 1.38 1.38 1.46 1.47 1.41 1.21 1.14 1.07 1.15 1.20 1.21 1.22 1.19 1.06 0.99 0.98 0.99 0.97 0.95 0.97 1.03 1.11 1.25 1.51 1.80 2.14 2.31 2.08 1.90 1.71 1.46 1.26 1.07 1.06 1.03 0.92 0.79 0.72 0.77 0.67 0.57
1.23 1.16 1.15 1.17 1.20 1.26 1.24 1.09 1.03 0.95 0.98 0.99 0.98 1.02 1.06 0.97 0.93 0.81 0.79 0.82 0.82 0.80 0.79 0.83 0.91 1.09 1.35 1.66 1.99 2.12 1.85 1.51 1.36 1.18 1.02 0.94 0.90 0.92 0.88 0.73 0.70 0.72 0.60
1.33 1.27 1.22 1.21 1.22 1.31 1.35 1.15 1.06 0.97 0.99 1.01 1.10 1.13 1.09 0.96 0.86 0.69 0.67 0.72 0.72 0.68 0.71 0.71 0.70 0.77 0.90 1.15 1.51 1.65 1.68 1.43 1.20 1.07 0.83 0.75 0.73 0.74 0.79 0.68 0.54 0.53 0.54

GEFSMA_prec_meanprecacc_174.txt.gz
Total_Precipitation_Accumulation
2.02 2.12 1.94 1.82 1.60 1.81 2.07 2.18 1.97 2.15 2.15 2.15 2.10 2.10 2.13 1.89 1.72 1.63 1.68 1.81 1.76 1.74 1.88 1.93 1.86 1.84 1.77 1.58 1.40 1.21 1.04 0.96 0.86 0.77 0.69 0.61 0.54 0.46 0.42 0.29 0.23 0.17 0.14
1.82 1.88 1.81 1.75 1.68 1.78 1.98 2.00 1.97 2.22 2.31 2.26 1.95 1.83 1.83 1.88 1.80 1.64 1.77 1.86 1.89 1.72 1.80 2.05 2.15 2.13 2.13 1.96 1.72 1.51 1.30 1.13 0.92 0.73 0.66 0.65 0.57 0.50 0.53 0.54 0.56 0.28 0.17
1.55 1.64 1.66 1.61 1.65 1.67 1.69 1.68 1.74 1.94 1.94 1.88 1.72 1.61 1.65 1.70 1.78 1.78 1.65 1.69 1.80 1.85 1.78 1.94 2.10 2.14 2.27 2.27 2.11 1.82 1.58 1.31 1.04 0.75 0.61 0.59 0.56 0.45 0.44 0.51 0.55 0.35 0.22
1.30 1.38 1.30 1.32 1.34 1.34 1.33 1.42 1.47 1.64 1.77 1.85 1.83 1.67 1.76 1.82 1.72 1.82 1.78 1.70 1.93 1.80 2.03 2.14 2.12 2.08 2.30 2.54 2.60 2.36 1.98 1.55 1.22 0.95 0.74 0.62 0.57 0.50 0.42 0.41 0.41 0.37 0.25
1.20 1.23 1.24 1.26 1.08 1.11 1.13 1.07 1.25 1.48 1.68 1.74 1.54 1.61 1.51 1.53 1.55 1.49 1.68 1.56 1.70 1.83 2.00 2.07 2.16 2.09 2.36 2.79 3.17 3.23 2.80 2.14 1.62 1.30 1.14 1.00 0.86 0.67 0.55 0.52 0.45 0.39 0.35
1.23 1.14 1.07 1.04 0.91 1.02 1.14 1.20 1.47 1.48 1.43 1.47 1.29 1.46 1.37 1.20 1.29 1.38 1.37 1.45 1.50 1.39 1.65 1.88 2.07 1.78 2.12 2.66 3.08 3.38 3.44 3.06 2.40 1.86 1.60 1.46 1.30 0.97 0.65 0.56 0.54 0.50 0.44
1.21 1.15 1.04 1.14 0.96 0.97 0.99 0.99 1.14 1.22 1.17 1.19 1.45 1.53 1.30 1.11 1.17 1.20 1.17 1.31 1.35 1.34 1.65 1.99 2.08 2.01 1.77 1.77 1.91 2.40 3.05 3.43 3.19 2.60 2.11 1.82 1.65 1.29 0.89 0.69 0.60 0.57 0.54
1.12 1.05 1.12 1.06 1.00 1.04 0.99 1.00 1.12 1.17 1.15 1.14 1.31 1.48 1.37 1.43 1.34 1.02 1.19 1.24 1.25 1.42 1.59 1.70 1.95 2.15 1.84 1.91 1.41 1.59 2.24 2.79 3.27 3.23 2.69 2.14 1.89 1.63 1.27 1.01 0.79 0.69 0.65
0.99 1.03 1.04 1.07 1.08 0.92 0.99 1.05 1.01 1.06 1.09 1.04 1.06 1.28 1.36 1.42 1.26 1.05 1.08 1.10 1.20 1.43 1.48 1.59 1.48 1.62 1.77 1.93 1.78 1.42 1.64 1.90 2.61 3.32 3.24 2.65 2.13 1.75 1.53 1.40 1.26 1.04 0.90
0.99 0.92 0.95 1.08 1.08 0.95 1.08 0.83 0.88 1.03 1.08 0.94 0.91 0.92 0.96 1.13 1.26 1.28 1.16 1.10 1.14 1.20 1.25 1.29 1.32 1.40 1.48 1.71 1.79 1.34 1.10 1.31 1.91 2.75 3.23 3.04 2.54 1.99 1.73 1.78 2.01 1.93 1.53
1.25 1.01 0.95 1.07 1.14 1.09 1.12 1.02 1.15 1.02 0.93 0.86 0.84 0.92 0.96 0.94 0.91 1.16 1.26 1.20 1.13 0.96 0.98 1.05 1.09 1.14 1.20 1.39 1.62 1.21 0.93 1.06 1.31 1.78 2.25 2.53 2.53 2.36 2.17 2.24 2.69 2.98 2.78
1.30 1.21 1.12 1.23 1.24 1.18 1.18 1.10 1.14 1.10 1.04 1.00 0.88 0.85 1.05 1.02 0.91 1.07 1.04 1.05 1.03 0.79 0.83 0.93 0.95 1.01 1.08 1.24 1.19 1.05 1.10 1.20 1.14 1.13 1.32 1.60 1.90 2.08 2.22 2.41 2.69 3.07 3.21
1.14 1.20 1.24 1.33 1.26 1.25 1.18 1.16 1.17 1.18 1.24 1.24 1.04 0.85 0.85 0.96 0.95 0.96 0.97 0.91 0.91 0.83 0.88 0.85 0.88 1.05 1.16 1.46 1.45 1.27 1.25 1.34 1.19 1.06 1.02 1.05 1.18 1.38 1.57 1.80 2.17 2.57 2.95
1.15 1.24 1.31 1.22 1.17 1.16 1.11 1.17 1.07 1.04 1.11 1.17 1.08 1.19 1.13 0.93 1.01 1.03 1.06 1.18 1.17 1.13 1.16 1.14 1.23 1.36 1.50 1.60 1.69 1.46 1.22 1.14 0.95 0.88 0.85 0.83 0.86 0.94 1.08 1.20 1.37 1.62 1.83
1.17 1.19 1.13 1.09 1.11 1.12 1.17 1.23 1.16 1.10 1.14 1.04 1.07 1.33 1.27 1.04 1.01 1.06 1.10 1.23 1.47 1.43 1.35 1.43 1.58 1.69 1.62 1.58 1.56 1.42 1.26 1.14 0.94 0.81 0.78 0.76 0.76 0.79 0.83 0.86 0.89 1.01 1.11
1.14 1.17 1.13 1.09 1.08 1.01 1.04 1.17 1.14 1.16 1.22 1.19 1.18 1.23 1.27 1.20 1.17 1.17 1.22 1.30 1.49 1.53 1.47 1.47 1.69 1.77 1.60 1.42 1.48 1.44 1.29 1.21 1.01 0.87 0.78 0.77 0.79 0.80 0.78 0.77 0.74 0.74 0.77
1.13 1.15 1.14 1.15 1.11 1.06 1.07 1.13 1.09 1.16 1.23 1.33 1.36 1.31 1.31 1.39 1.42 1.32 1.33 1.37 1.48 1.63 1.63 1.59 1.73 1.77 1.64 1.41 1.36 1.35 1.32 1.30 1.14 1.06 0.90 0.83 0.79 0.77 0.74 0.77 0.79 0.76 0.70
1.16 1.12 1.10 1.16 1.09 1.07 1.11 1.05 1.04 1.13 1.24 1.31 1.40 1.54 1.55 1.51 1.47 1.40 1.43 1.47 1.58 1.79 1.82 1.74 1.73 1.77 1.69 1.55 1.46 1.33 1.19 1.16 1.14 1.19 1.02 0.88 0.81 0.78 0.75 0.72 0.70 0.68 0.65
1.23 1.21 1.15 1.14 1.15 1.18 1.18 1.06 1.03 1.05 1.06 1.07 1.20 1.46 1.68 1.88 1.78 1.61 1.53 1.50 1.57 1.68 1.84 1.77 1.73 1.86 1.84 1.70 1.56 1.36 1.20 1.15 1.00 1.03 1.02 0.93 0.83 0.76 0.71 0.67 0.65 0.64 0.61
1.20 1.26 1.28 1.26 1.24 1.19 1.15 1.13 1.17 1.16 1.11 1.04 1.08 1.20 1.33 1.54 1.72 1.80 1.66 1.52 1.53 1.65 1.82 1.86 1.94 2.17 2.20 2.02 1.73 1.52 1.40 1.27 1.12 0.92 0.93 0.92 0.86 0.78 0.74 0.71 0.67 0.64 0.64
1.24 1.39 1.46 1.44 1.38 1.33 1.21 1.26 1.35 1.25 1.26 1.20 1.16 1.15 1.12 1.21 1.33 1.47 1.51 1.63 1.65 1.66 1.78 1.88 2.08 2.49 2.50 2.23 1.82 1.60 1.53 1.45 1.27 1.08 0.98 0.87 0.81 0.75 0.75 0.77 0.75 0.70 0.64
1.58 1.64 1.62 1.58 1.55 1.39 1.42 1.38 1.35 1.34 1.41 1.40 1.36 1.29 1.18 1.09 1.10 1.17 1.24 1.35 1.51 1.58 1.63 1.75 1.95 2.26 2.40 2.27 1.99 1.76 1.56 1.43 1.32 1.22 1.12 1.06 0.92 0.86 0.78 0.70 0.76 0.74 0.71
1.63 1.70 1.78 1.77 1.74 1.77 1.66 1.39 1.33 1.35 1.43 1.48 1.54 1.54 1.26 1.05 1.10 1.07 1.16 1.18 1.21 1.32 1.43 1.54 1.72 1.94 2.24 2.34 2.18 1.82 1.67 1.54 1.33 1.21 1.16 1.12 1.01 0.90 0.80 0.75 0.79 0.67 0.64
1.46 1.44 1.44 1.43 1.50 1.50 1.43 1.23 1.17 1.12 1.23 1.28 1.29 1.29 1.25 1.11 1.02 1.00 1.01 0.99 0.97 0.99 1.05 1.12 1.28 1.54 1.83 2.18 2.35 2.13 1.94 1.75 1.51 1.30 1.11 1.10 1.07 0.95 0.83 0.74 0.79 0.69 0.58
1.28 1.22 1.20 1.20 1.23 1.28 1.26 1.11 1.05 0.98 1.03 1.04 1.04 1.07 1.11 1.01 0.96 0.83 0.81 0.85 0.84 0.82 0.80 0.84 0.92 1.10 1.36 1.68 2.02 2.15 1.87 1.54 1.40 1.21 1.05 0.96 0.92 0.94 0.90 0.75 0.72 0.74 0.61
1.38 1.31 1.25 1.24 1.25 1.33 1.37 1.16 1.06 0.98 1.03 1.05 1.15 1.18 1.14 0.99 0.88 0.70 0.69 0.75 0.74 0.70 0.72 0.72 0.72 0.78 0.91 1.17 1.52 1.67 1.71 1.45 1.22 1.10 0.84 0.77 0.74 0.76 0.81 0.70 0.56 0.54 0.55

GEFSMA_prec_meanprecacc_180.txt.gz
Total_Precipitation_Accumulation
2.05 2.16 1.99 1.85 1.62 1.82 2.10 2.21 2.02 2.20 2.19 2.19 2.14 2.14 2.17 1.92 1.76 1.68 1.71 1.85 1.78 1.76 1.90 1.94 1.88 1.86 1.79 1.61 1.44 1.23 1.06 0.98 0.88 0.78 0.71 0.63 0.56 0.48 0.44 0.31 0.25 0.18 0.15
1.85 1.91 1.84 1.78 1.71 1.82 2.02 2.03 2.00 2.24 2.34 2.29 1.99 1.87 1.87 1.90 1.82 1.66 1.79 1.89 1.91 1.74 1.83 2.07 2.18 2.16 2.16 2.00 1.75 1.54 1.33 1.15 0.94 0.75 0.68 0.66 0.59 0.52 0.55 0.56 0.58 0.30 0.19
1.57 1.66 1.69 1.64 1.71 1.70 1.73 1.71 1.77 1.97 1.96 1.92 1.76 1.65 1.69 1.76 1.81 1.79 1.68 1.71 1.82 1.87 1.82 1.97 2.14 2.17 2.30 2.30 2.15 1.85 1.60 1.33 1.05 0.77 0.62 0.60 0.57 0.47 0.46 0.53 0.57 0.37 0.24
1.33 1.41 1.34 1.36 1.37 1.36 1.35 1.45 1.50 1.67 1.81 1.90 1.88 1.71 1.80 1.87 1.76 1.85 1.82 1.74 1.96 1.83 2.06 2.17 2.15 2.11 2.33 2.57 2.63 2.38 1.99 1.56 1.24 0.98 0.77 0.65 0.60 0.52 0.45 0.43 0.44 0.40 0.27
1.23 1.27 1.28 1.29 1.11 1.15 1.17 1.10 1.29 1.51 1.72 1.78 1.58 1.65 1.55 1.58 1.60 1.54 1.74 1.63 1.77 1.88 2.05 2.10 2.19 2.11 2.39 2.83 3.22 3.28 2.84 2.18 1.65 1.33 1.18 1.03 0.89 0.70 0.58 0.55 0.48 0.42 0.37
1.26 1.18 1.10 1.06 0.94 1.06 1.18 1.25 1.52 1.51 1.46 1.50 1.34 1.52 1.43 1.26 1.37 1.48 1.45 1.54 1.59 1.45 1.71 1.94 2.11 1.81 2.16 2.71 3.13 3.44 3.51 3.13 2.45 1.91 1.64 1.48 1.32 0.99 0.67 0.58 0.56 0.52 0.47
1.24 1.19 1.08 1.17 1.00 1.01 1.02 1.04 1.19 1.25 1.20 1.24 1.55 1.64 1.39 1.19 1.26 1.29 1.26 1.46 1.50 1.46 1.75 2.09 2.17 2.08 1.83 1.82 1.96 2.46 3.12 3.49 3.26 2.66 2.17 1.87 1.68 1.32 0.91 0.70 0.61 0.59 0.56
1.14 1.08 1.15 1.08 1.03 1.07 1.02 1.04 1.17 1.23 1.20 1.23 1.40 1.56 1.43 1.50 1.41 1.10 1.31 1.40 1.43 1.59 1.72 1.83 2.07 2.25 1.93 1.98 1.45 1.62 2.28 2.84 3.33 3.29 2.74 2.20 1.94 1.68 1.31 1.04 0.81 0.71 0.68
1.03 1.08 1.08 1.10 1.11 0.94 1.02 1.08 1.06 1.11 1.13 1.10 1.14 1.36 1.41 1.46 1.32 1.11 1.16 1.22 1.33 1.55 1.61 1.72 1.59 1.73 1.85 2.02 1.86 1.48 1.68 1.93 2.66 3.37 3.30 2.71 2.18 1.79 1.57 1.44 1.30 1.08 0.94
1.03 0.96 1.00 1.13 1.12 0.98 1.10 0.86 0.93 1.08 1.12 0.98 0.97 0.99 1.02 1.18 1.31 1.33 1.21 1.16 1.22 1.30 1.38 1.45 1.48 1.55 1.59 1.79 1.88 1.42 1.16 1.36 1.98 2.82 3.29 3.10 2.60 2.05 1.79 1.83 2.06 1.99 1.60
1.30 1.07 0.99 1.11 1.18 1.13 1.16 1.05 1.19 1.06 0.97 0.90 0.91 0.99 1.04 0.99 0.96 1.19 1.29 1.24 1.21 1.06 1.08 1.14 1.20 1.27 1.34 1.52 1.74 1.30 1.02 1.16 1.41 1.89 2.34 2.61 2.60 2.44 2.24 2.30 2.76 3.06 2.87
1.36 1.25 1.16 1.26 1.27 1.22 1.22 1.13 1.18 1.14 1.09 1.05 0.93 0.92 1.11 1.08 0.96 1.10 1.07 1.08 1.07 0.84 0.89 1.00 1.03 1.10 1.19 1.36 1.33 1.19 1.26 1.35 1.27 1.27 1.43 1.69 1.98 2.16 2.30 2.48 2.76 3.16 3.32
1.18 1.25 1.29 1.38 1.30 1.29 1.22 1.20 1.22 1.22 1.28 1.27 1.08 0.91 0.92 1.02 1.01 1.01 1.01 0.94 0.95 0.89 0.93 0.90 0.96 1.12 1.24 1.56 1.60 1.44 1.43 1.52 1.34 1.18 1.11 1.13 1.25 1.46 1.66 1.90 2.27 2.68 3.05
1.20 1.30 1.36 1.26 1.23 1.22 1.15 1.22 1.14 1.10 1.15 1.20 1.11 1.24 1.20 0.99 1.08 1.10 1.13 1.24 1.23 1.19 1.20 1.18 1.29 1.43 1.57 1.67 1.80 1.62 1.38 1.27 1.07 1.00 0.96 0.93 0.94 1.01 1.15 1.28 1.47 1.73 1.94
1.21 1.23 1.16 1.15 1.17 1.17 1.22 1.30 1.23 1.17 1.19 1.09 1.11 1.38 1.34 1.09 1.08 1.15 1.19 1.32 1.54 1.48 1.39 1.47 1.63 1.74 1.68 1.64 1.65 1.52 1.36 1.24 1.04 0.91 0.88 0.86 0.84 0.85 0.89 0.91 0.95 1.07 1.17
1.18 1.21 1.16 1.15 1.14 1.06 1.10 1.24 1.21 1.23 1.29 1.24 1.23 1.28 1.32 1.25 1.23 1.26 1.30 1.38 1.57 1.59 1.51 1.51 1.74 1.84 1.67 1.50 1.60 1.56 1.40 1.30 1.09 0.93 0.84 0.82 0.83 0.85 0.83 0.82 0.79 0.79 0.82
1.19 1.20 1.18 1.19 1.17 1.12 1.13 1.20 1.15 1.23 1.31 1.40 1.41 1.35 1.34 1.43 1.47 1.39 1.40 1.44 1.56 1.71 1.70 1.63 1.79 1.83 1.70 1.48 1.45 1.46 1.42 1.38 1.20 1.13 0.96 0.88 0.85 0.83 0.79 0.81 0.84 0.82 0.76
1.20 1.16 1.15 1.21 1.14 1.13 1.18 1.12 1.12 1.20 1.32 1.38 1.46 1.59 1.61 1.59 1.53 1.47 1.51 1.54 1.65 1.87 1.88 1.78 1.78 1.82 1.73 1.61 1.53 1.40 1.24 1.19 1.17 1.23 1.07 0.93 0.86 0.83 0.80 0.77 0.76 0.74 0.70
1.27 1.24 1.18 1.18 1.19 1.22 1.24 1.12 1.10 1.13 1.13 1.14 1.26 1.51 1.75 1.97 1.86 1.69 1.60 1.57 1.63 1.73 1.89 1.79 1.76 1.89 1.88 1.75 1.60 1.40 1.24 1.19 1.04 1.06 1.06 0.98 0.87 0.80 0.74 0.70 0.69 0.67 0.64
1.24 1.30 1.31 1.29 1.27 1.24 1.20 1.19 1.23 1.21 1.17 1.11 1.15 1.27 1.41 1.61 1.78 1.87 1.71 1.57 1.57 1.69 1.85 1.88 1.96 2.21 2.25 2.07 1.78 1.56 1.44 1.30 1.16 0.97 0.98 0.95 0.89 0.82 0.79 0.76 0.71 0.69 0.69
1.28 1.42 1.49 1.47 1.42 1.37 1.25 1.30 1.38 1.28 1.30 1.25 1.22 1.21 1.18 1.26 1.40 1.54 1.56 1.67 1.69 1.69 1.81 1.91 2.11 2.52 2.54 2.27 1.86 1.64 1.56 1.49 1.31 1.11 1.01 0.89 0.83 0.77 0.78 0.81 0.80 0.74 0.68
1.61 1.66 1.64 1.61 1.58 1.42 1.46 1.41 1.38 1.38 1.44 1.44 1.40 1.34 1.23 1.15 1.18 1.27 1.31 1.41 1.54 1.61 1.67 1.78 1.97 2.28 2.42 2.29 2.00 1.78 1.58 1.45 1.34 1.23 1.14 1.08 0.94 0.88 0.80 0.72 0.80 0.77 0.74
1.67 1.73 1.80 1.80 1.78 1.81 1.70 1.43 1.37 1.38 1.47 1.51 1.58 1.60 1.32 1.11 1.17 1.14 1.23 1.23 1.24 1.35 1.46 1.56 1.75 1.97 2.27 2.37 2.21 1.85 1.69 1.55 1.34 1.22 1.17 1.13 1.02 0.91 0.81 0.77 0.81 0.69 0.66
1.51 1.48 1.47 1.47 1.55 1.56 1.49 1.28 1.21 1.15 1.27 1.33 1.33 1.33 1.29 1.15 1.06 1.05 1.07 1.03 1.01 1.02 1.08 1.15 1.30 1.57 1.86 2.21 2.38 2.16 1.97 1.78 1.54 1.33 1.13 1.12 1.08 0.96 0.83 0.75 0.81 0.70 0.59
1.35 1.28 1.25 1.25 1.28 1.33 1.31 1.15 1.09 1.02 1.07 1.09 1.08 1.11 1.15 1.07 1.03 0.89 0.87 0.89 0.88 0.86 0.84 0.87 0.95 1.12 1.38 1.70 2.04 2.16 1.88 1.55 1.41 1.23 1.07 0.98 0.94 0.95 0.91 0.76 0.73 0.75 0.62
1.50 1.42 1.34 1.31 1.31 1.39 1.42 1.20 1.12 1.06 1.12 1.14 1.21 1.22 1.18 1.05 0.96 0.78 0.75 0.80 0.77 0.72 0.74 0.73 0.73 0.80 0.92 1.18 1.53 1.68 1.72 1.47 1.24 1.11 0.86 0.79 0.76 0.78 0.82 0.71 0.56 0.55 0.55

GEFSMA_prec_meanprecacc_186.txt.gz
Total_Precipitation_Accumulation
2.06 2.18 1.99 1.86 1.62 1.83 2.11 2.22 2.03 2.22 2.21 2.22 2.17 2.16 2.19 1.93 1.78 1.70 1.72 1.89 1.82 1.80 1.96 2.01 1.93 1.90 1.84 1.65 1.49 1.29 1.11 1.02 0.91 0.80 0.73 0.66 0.60 0.51 0.47 0.34 0.28 0.21 0.18
1.86 1.92 1.85 1.79 1.72 1.82 2.03 2.03 2.02 2.26 2.36 2.31 2.02 1.90 1.89 1.92 1.84 1.67 1.81 1.92 1.96 1.79 1.87 2.14 2.24 2.23 2.25 2.08 1.83 1.60 1.38 1.19 0.97 0.77 0.70 0.68 0.62 0.55 0.58 0.59 0.61 0.34 0.22
1.59 1.69 1.71 1.66 1.72 1.71 1.74 1.72 1.79 1.99 1.99 1.95 1.79 1.67 1.71 1.78 1.84 1.81 1.69 1.72 1.85 1.92 1.88 2.04 2.21 2.25 2.40 2.41 2.24 1.91 1.65 1.37 1.08 0.79 0.64 0.62 0.59 0.49 0.48 0.56 0.60 0.40 0.26
1.38 1.45 1.37 1.37 1.38 1.37 1.37 1.47 1.53 1.69 1.85 1.94 1.91 1.73 1.82 1.90 1.78 1.87 1.84 1.75 1.98 1.85 2.11 2.25 2.23 2.17 2.42 2.67 2.73 2.47 2.07 1.63 1.28 1.01 0.79 0.67 0.62 0.54 0.47 0.46 0.47 0.43 0.30
1.27 1.31 1.32 1.31 1.13 1.17 1.19 1.13 1.33 1.53 1.76 1.81 1.61 1.67 1.58 1.61 1.62 1.57 1.76 1.65 1.80 1.90 2.07 2.16 2.27 2.18 2.47 2.94 3.35 3.42 2.97 2.28 1.74 1.41 1.24 1.08 0.92 0.73 0.60 0.58 0.50 0.44 0.40
1.29 1.22 1.13 1.08 0.96 1.09 1.21 1.27 1.55 1.54 1.50 1.53 1.38 1.56 1.46 1.28 1.39 1.51 1.49 1.59 1.64 1.49 1.74 1.98 2.17 1.88 2.23 2.81 3.24 3.55 3.62 3.21 2.53 2.00 1.72 1.57 1.40 1.05 0.71 0.61 0.59 0.55 0.50
1.27 1.23 1.12 1.20 1.03 1.04 1.05 1.06 1.22 1.29 1.24 1.29 1.59 1.69 1.44 1.22 1.29 1.33 1.33 1.53 1.56 1.52 1.81 2.14 2.22 2.13 1.88 1.89 2.04 2.55 3.22 3.59 3.36 2.75 2.26 1.95 1.77 1.39 0.95 0.74 0.64 0.61 0.59
1.17 1.10 1.18 1.11 1.06 1.10 1.05 1.07 1.20 1.25 1.25 1.28 1.46 1.62 1.47 1.51 1.43 1.12 1.33 1.42 1.47 1.63 1.76 1.88 2.12 2.30 1.97 2.03 1.49 1.68 2.36 2.95 3.45 3.40 2.83 2.27 2.01 1.75 1.37 1.09 0.87 0.75 0.73
1.06 1.10 1.10 1.12 1.15 0.98 1.04 1.10 1.08 1.13 1.16 1.14 1.20 1.42 1.46 1.48 1.34 1.13 1.17 1.23 1.36 1.58 1.65 1.77 1.65 1.78 1.89 2.05 1.90 1.53 1.75 2.02 2.77 3.50 3.41 2.81 2.26 1.84 1.63 1.51 1.37 1.13 0.99
1.08 1.00 1.03 1.17 1.16 1.02 1.12 0.88 0.95 1.11 1.15 1.01 1.01 1.03 1.07 1.21 1.34 1.34 1.21 1.16 1.23 1.31 1.40 1.48 1.52 1.60 1.63 1.82 1.90 1.46 1.20 1.40 2.03 2.90 3.40 3.20 2.68 2.11 1.85 1.89 2.13 2.07 1.68
1.38 1.12 1.05 1.17 1.23 1.17 1.20 1.08 1.22 1.10 1.01 0.94 0.94 1.03 1.08 1.03 0.99 1.21 1.30 1.25 1.23 1.07 1.09 1.16 1.23 1.32 1.38 1.56 1.78 1.33 1.05 1.19 1.44 1.94 2.41 2.71 2.71 2.54 2.33 2.40 2.86 3.18 2.99
1.44 1.34 1.24 1.34 1.35 1.29 1.27 1.19 1.23 1.19 1.14 1.10 0.97 0.96 1.16 1.12 1.00 1.12 1.08 1.09 1.08 0.86 0.91 1.02 1.06 1.13 1.23 1.40 1.37 1.25 1.31 1.40 1.34 1.38 1.53 1.78 2.07 2.26 2.43 2.63 2.92 3.31 3.47
1.26 1.35 1.39 1.45 1.38 1.36 1.29 1.28 1.29 1.29 1.34 1.32 1.13 0.95 0.96 1.06 1.06 1.04 1.03 0.95 0.96 0.91 0.95 0.92 0.97 1.15 1.26 1.59 1.65 1.49 1.48 1.58 1.40 1.25 1.19 1.21 1.33 1.54 1.76 2.01 2.39 2.80 3.19
1.26 1.38 1.43 1.32 1.29 1.30 1.22 1.28 1.21 1.18 1.21 1.24 1.15 1.28 1.24 1.03 1.13 1.15 1.17 1.27 1.25 1.21 1.22 1.21 1.31 1.45 1.59 1.70 1.85 1.66 1.43 1.33 1.13 1.06 1.03 1.00 1.03 1.10 1.24 1.38 1.57 1.84 2.05
1.25 1.27 1.21 1.20 1.22 1.21 1.27 1.36 1.28 1.22 1.24 1.14 1.16 1.43 1.37 1.14 1.14 1.20 1.24 1.37 1.59 1.51 1.42 1.50 1.66 1.78 1.73 1.70 1.71 1.57 1.41 1.32 1.12 1.00 0.96 0.92 0.90 0.90 0.95 0.98 1.03 1.14 1.23
1.21 1.25 1.20 1.19 1.19 1.10 1.14 1.29 1.25 1.28 1.35 1.31 1.31 1.37 1.39 1.31 1.28 1.32 1.37 1.44 1.62 1.63 1.54 1.54 1.78 1.88 1.72 1.56 1.70 1.66 1.49 1.39 1.16 1.01 0.91 0.89 0.90 0.89 0.87 0.86 0.82 0.83 0.86
1.22 1.23 1.22 1.25 1.23 1.16 1.17 1.24 1.20 1.27 1.35 1.45 1.46 1.40 1.40 1.50 1.53 1.44 1.46 1.49 1.62 1.77 1.74 1.68 1.85 1.90 1.76 1.53 1.50 1.51 1.48 1.44 1.26 1.18 1.01 0.92 0.88 0.86 0.83 0.85 0.87 0.85 0.79
1.23 1.20 1.21 1.28 1.21 1.20 1.23 1.18 1.17 1.24 1.35 1.42 1.51 1.64 1.66 1.66 1.61 1.56 1.60 1.62 1.73 1.94 1.94 1.84 1.83 1.87 1.77 1.65 1.56 1.44 1.28 1.24 1.23 1.29 1.12 0.97 0.90 0.87 0.84 0.81 0.79 0.76 0.73
1.30 1.28 1.22 1.22 1.25 1.28 1.29 1.17 1.14 1.16 1.16 1.17 1.30 1.57 1.80 2.02 1.92 1.78 1.71 1.67 1.73 1.83 1.97 1.87 1.82 1.95 1.92 1.80 1.65 1.44 1.28 1.22 1.07 1.11 1.10 1.01 0.90 0.83 0.78 0.74 0.73 0.72 0.68
1.27 1.33 1.34 1.33 1.31 1.28 1.25 1.22 1.26 1.24 1.20 1.15 1.20 1.31 1.45 1.65 1.82 1.92 1.77 1.64 1.65 1.77 1.93 1.96 2.04 2.29 2.33 2.13 1.82 1.59 1.47 1.33 1.18 0.99 1.00 0.97 0.91 0.84 0.82 0.80 0.76 0.74 0.73
1.32 1.45 1.52 1.50 1.45 1.40 1.28 1.33 1.41 1.32 1.33 1.29 1.27 1.26 1.22 1.30 1.43 1.58 1.60 1.72 1.75 1.77 1.89 1.99 2.18 2.60 2.60 2.32 1.90 1.67 1.59 1.51 1.33 1.14 1.03 0.91 0.84 0.78 0.79 0.84 0.83 0.78 0.72
1.66 1.72 1.68 1.65 1.62 1.44 1.48 1.43 1.41 1.40 1.48 1.49 1.46 1.41 1.29 1.19 1.22 1.31 1.37 1.46 1.61 1.67 1.73 1.84 2.03 2.33 2.47 2.33 2.04 1.81 1.60 1.47 1.37 1.25 1.16 1.10 0.96 0.89 0.81 0.74 0.81 0.79 0.76
1.71 1.81 1.89 1.86 1.81 1.83 1.72 1.45 1.39 1.41 1.50 1.56 1.64 1.67 1.41 1.19 1.25 1.22 1.29 1.30 1.31 1.40 1.50 1.60 1.79 2.00 2.30 2.40 2.25 1.88 1.72 1.58 1.37 1.25 1.20 1.16 1.04 0.93 0.82 0.78 0.83 0.70 0.67
1.58 1.57 1.57 1.54 1.59 1.59 1.51 1.31 1.24 1.18 1.31 1.38 1.39 1.38 1.36 1.23 1.15 1.15 1.15 1.09 1.05 1.06 1.12 1.19 1.33 1.59 1.89 2.24 2.42 2.20 2.01 1.82 1.58 1.36 1.15 1.14 1.10 0.98 0.85 0.77 0.83 0.71 0.60
1.48 1.39 1.34 1.33 1.34 1.39 1.35 1.19 1.13 1.05 1.11 1.13 1.13 1.15 1.19 1.11 1.09 0.97 0.92 0.94 0.93 0.90 0.88 0.90 0.98 1.15 1.42 1.74 2.09 2.22 1.94 1.61 1.46 1.27 1.10 1.00 0.96 0.97 0.93 0.78 0.75 0.76 0.63
1.61 1.50 1.42 1.40 1.39 1.46 1.48 1.24 1.15 1.10 1.15 1.17 1.24 1.24 1.20 1.07 0.99 0.82 0.78 0.83 0.80 0.74 0.76 0.75 0.74 0.81 0.94 1.20 1.57 1.72 1.76 1.51 1.28 1.15 0.89 0.82 0.79 0.80 0.85 0.73 0.58 0.56 0.56

GEFSMA_prec_meanprecacc_192.txt.gz
Total_Precipitation_Accumulation
2.12 2.24 2.09 1.95 1.70 1.89 2.17 2.28 2.09 2.30 2.28 2.26 2.19 2.18 2.21 1.95 1.79 1.72 1.75 1.92 1.86 1.84 1.99 2.05 1.97 1.93 1.87 1.69 1.54 1.34 1.17 1.07 0.95 0.83 0.75 0.68 0.61 0.53 0.49 0.36 0.31 0.25 0.21
1.90 1.96 1.91 1.86 1.78 1.88 2.07 2.08 2.08 2.34 2.43 2.37 2.06 1.92 1.91 1.95 1.86 1.71 1.85 1.95 1.99 1.82 1.90 2.18 2.29 2.27 2.29 2.13 1.88 1.65 1.42 1.24 1.02 0.82 0.73 0.70 0.63 0.57 0.61 0.61 0.64 0.36 0.25
1.64 1.74 1.76 1.70 1.76 1.75 1.78 1.76 1.84 2.06 2.06 2.01 1.84 1.71 1.74 1.82 1.86 1.84 1.73 1.76 1.88 1.94 1.90 2.07 2.26 2.30 2.45 2.47 2.30 1.98 1.70 1.42 1.12 0.83 0.67 0.64 0.61 0.52 0.51 0.58 0.62 0.43 0.29
1.41 1.50 1.42 1.42 1.43 1.40 1.40 1.52 1.59 1.77 1.92 2.00 1.97 1.78 1.85 1.94 1.82 1.90 1.87 1.80 2.04 1.90 2.16 2.28 2.27 2.22 2.48 2.75 2.83 2.59 2.18 1.71 1.34 1.05 0.83 0.70 0.65 0.57 0.49 0.48 0.49 0.45 0.32
1.32 1.36 1.38 1.38 1.17 1.21 1.24 1.19 1.41 1.62 1.84 1.90 1.67 1.72 1.62 1.65 1.67 1.60 1.80 1.69 1.84 1.95 2.13 2.20 2.30 2.21 2.50 3.02 3.45 3.53 3.09 2.39 1.82 1.48 1.30 1.13 0.97 0.77 0.64 0.61 0.54 0.48 0.43
1.35 1.29 1.20 1.14 1.01 1.13 1.27 1.35 1.65 1.65 1.59 1.63 1.43 1.61 1.51 1.33 1.43 1.54 1.53 1.62 1.67 1.51 1.77 2.02 2.25 1.93 2.26 2.85 3.30 3.63 3.73 3.35 2.66 2.11 1.81 1.64 1.46 1.11 0.76 0.65 0.62 0.58 0.52
1.35 1.31 1.19 1.27 1.09 1.09 1.11 1.12 1.29 1.37 1.31 1.38 1.68 1.78 1.49 1.25 1.31 1.35 1.35 1.56 1.59 1.53 1.84 2.19 2.30 2.22 1.95 1.93 2.07 2.59 3.29 3.70 3.49 2.87 2.36 2.04 1.84 1.46 1.01 0.77 0.67 0.65 0.62
1.22 1.15 1.26 1.19 1.12 1.16 1.10 1.12 1.26 1.33 1.31 1.36 1.55 1.71 1.54 1.58 1.47 1.14 1.34 1.44 1.50 1.66 1.78 1.91 2.17 2.37 2.05 2.10 1.55 1.71 2.41 3.00 3.53 3.50 2.92 2.35 2.08 1.81 1.44 1.15 0.91 0.79 0.76
1.10 1.16 1.16 1.19 1.22 1.03 1.11 1.19 1.17 1.22 1.26 1.24 1.27 1.51 1.55 1.56 1.39 1.15 1.19 1.24 1.38 1.61 1.68 1.80 1.67 1.81 1.94 2.14 1.98 1.58 1.78 2.06 2.82 3.58 3.50 2.89 2.34 1.92 1.70 1.57 1.42 1.18 1.03
1.13 1.05 1.08 1.24 1.25 1.08 1.20 0.96 1.02 1.21 1.26 1.11 1.10 1.11 1.16 1.30 1.42 1.40 1.26 1.18 1.24 1.33 1.42 1.51 1.55 1.63 1.69 1.88 1.96 1.50 1.22 1.43 2.07 2.96 3.48 3.29 2.76 2.17 1.89 1.93 2.18 2.13 1.74
1.43 1.15 1.08 1.22 1.30 1.24 1.27 1.16 1.31 1.20 1.11 1.05 1.06 1.13 1.16 1.11 1.06 1.28 1.37 1.30 1.26 1.09 1.12 1.19 1.27 1.37 1.41 1.59 1.84 1.38 1.07 1.21 1.46 1.96 2.45 2.77 2.77 2.58 2.38 2.45 2.93 3.26 3.09
1.50 1.39 1.29 1.39 1.42 1.35 1.34 1.27 1.31 1.27 1.23 1.20 1.08 1.04 1.25 1.22 1.09 1.21 1.16 1.16 1.14 0.90 0.94 1.05 1.09 1.17 1.26 1.43 1.40 1.26 1.32 1.41 1.35 1.40 1.55 1.81 2.11 2.31 2.51 2.72 3.00 3.40 3.57
1.33 1.43 1.46 1.55 1.45 1.42 1.36 1.35 1.36 1.37 1.40 1.39 1.22 1.04 1.04 1.14 1.15 1.14 1.12 1.02 1.01 0.95 0.98 0.95 1.00 1.18 1.30 1.63 1.68 1.51 1.49 1.59 1.41 1.27 1.21 1.24 1.38 1.62 1.85 2.12 2.49 2.89 3.29
1.31 1.43 1.49 1.40 1.36 1.35 1.27 1.35 1.27 1.23 1.26 1.31 1.22 1.37 1.32 1.10 1.19 1.22 1.26 1.37 1.32 1.27 1.27 1.25 1.35 1.50 1.64 1.75 1.89 1.70 1.46 1.35 1.15 1.08 1.06 1.05 1.09 1.18 1.31 1.45 1.64 1.91 2.14
1.29 1.32 1.26 1.25 1.27 1.27 1.34 1.43 1.34 1.26 1.29 1.21 1.23 1.50 1.45 1.20 1.18 1.25 1.30 1.47 1.69 1.59 1.48 1.55 1.70 1.83 1.78 1.77 1.79 1.63 1.47 1.37 1.16 1.03 1.00 0.98 0.97 0.97 1.00 1.04 1.09 1.22 1.32
1.25 1.29 1.23 1.23 1.23 1.16 1.20 1.36 1.30 1.32 1.40 1.37 1.37 1.43 1.46 1.38 1.36 1.39 1.43 1.52 1.71 1.73 1.62 1.59 1.83 1.94 1.78 1.64 1.78 1.72 1.55 1.46 1.22 1.05 0.94 0.92 0.94 0.95 0.95 0.94 0.89 0.89 0.90
1.25 1.27 1.27 1.30 1.27 1.22 1.23 1.30 1.25 1.33 1.41 1.50 1.51 1.45 1.46 1.57 1.62 1.53 1.54 1.57 1.70 1.87 1.84 1.75 1.91 1.95 1.82 1.60 1.56 1.58 1.55 1.51 1.33 1.24 1.06 0.97 0.93 0.91 0.89 0.90 0.92 0.90 0.84
1.26 1.24 1.26 1.33 1.25 1.24 1.28 1.21 1.22 1.29 1.41 1.47 1.56 1.69 1.71 1.71 1.66 1.60 1.66 1.69 1.81 2.04 2.04 1.92 1.90 1.92 1.84 1.71 1.61 1.47 1.32 1.29 1.30 1.40 1.22 1.07 0.98 0.94 0.90 0.86 0.84 0.81 0.78
1.33 1.31 1.26 1.27 1.31 1.33 1.34 1.21 1.17 1.20 1.20 1.21 1.35 1.61 1.85 2.08 1.98 1.82 1.76 1.74 1.80 1.91 2.06 1.96 1.91 2.04 2.01 1.87 1.71 1.48 1.32 1.26 1.10 1.16 1.18 1.09 0.97 0.89 0.84 0.80 0.78 0.76 0.71
1.30 1.36 1.38 1.37 1.36 1.34 1.32 1.30 1.32 1.29 1.23 1.18 1.23 1.34 1.48 1.69 1.86 1.97 1.81 1.68 1.71 1.83 1.99 2.03 2.11 2.37 2.42 2.23 1.92 1.67 1.54 1.39 1.24 1.04 1.06 1.02 0.96 0.88 0.86 0.83 0.80 0.78 0.76
1.35 1.49 1.56 1.54 1.49 1.45 1.34 1.41 1.49 1.38 1.38 1.33 1.31 1.29 1.24 1.32 1.45 1.61 1.63 1.76 1.79 1.80 1.92 2.03 2.25 2.66 2.68 2.41 1.98 1.74 1.65 1.57 1.38 1.19 1.09 0.96 0.88 0.81 0.82 0.88 0.86 0.82 0.76
1.70 1.76 1.72 1.68 1.66 1.49 1.53 1.49 1.47 1.47 1.53 1.53 1.50 1.44 1.32 1.22 1.24 1.34 1.40 1.51 1.66 1.72 1.80 1.91 2.10 2.41 2.54 2.40 2.10 1.87 1.66 1.52 1.40 1.27 1.18 1.13 0.99 0.93 0.84 0.77 0.85 0.82 0.78
1.75 1.84 1.92 1.91 1.86 1.88 1.75 1.48 1.43 1.46 1.55 1.59 1.67 1.70 1.43 1.22 1.28 1.25 1.33 1.35 1.37 1.47 1.57 1.67 1.86 2.07 2.36 2.46 2.30 1.93 1.76 1.61 1.39 1.27 1.22 1.19 1.08 0.96 0.86 0.82 0.87 0.74 0.70
1.64 1.62 1.62 1.60 1.63 1.61 1.53 1.33 1.27 1.22 1.35 1.42 1.42 1.42 1.39 1.26 1.19 1.20 1.22 1.17 1.12 1.14 1.19 1.24 1.37 1.63 1.92 2.27 2.46 2.23 2.04 1.85 1.60 1.38 1.17 1.16 1.12 1.00 0.87 0.79 0.85 0.74 0.63
1.53 1.43 1.38 1.36 1.37 1.41 1.38 1.23 1.17 1.11 1.17 1.19 1.17 1.18 1.22 1.14 1.12 0.99 0.96 0.99 0.97 0.94 0.93 0.94 1.01 1.18 1.44 1.76 2.12 2.24 1.96 1.64 1.49 1.29 1.12 1.03 0.98 1.00 0.95 0.81 0.77 0.80 0.67
1.68 1.57 1.48 1.45 1.44 1.51 1.55 1.32 1.23 1.17 1.23 1.24 1.29 1.27 1.23 1.09 1.01 0.84 0.79 0.85 0.83 0.77 0.78 0.77 0.77 0.83 0.96 1.22 1.59 1.74 1.78 1.54 1.30 1.17 0.91 0.84 0.81 0.83 0.88 0.76 0.61 0.60 0.60

GEFSMA_prec_meanprecacc_198.txt.gz
Total_Precipitation_Accumulation
2.21 2.34 2.19 2.07 1.80 1.97 2.24 2.36 2.13 2.34 2.31 2.30 2.23 2.21 2.23 1.97 1.83 1.77 1.81 1.94 1.86 1.84 2.00 2.06 1.98 1.95 1.89 1.71 1.56 1.35 1.19 1.09 0.98 0.85 0.77 0.69 0.64 0.56 0.50 0.38 0.33 0.26 0.22
1.98 2.04 1.98 1.96 1.87 1.94 2.12 2.14 2.13 2.39 2.49 2.43 2.10 1.95 1.94 1.98 1.90 1.75 1.89 1.98 2.00 1.82 1.91 2.19 2.30 2.30 2.32 2.15 1.90 1.67 1.44 1.25 1.03 0.84 0.76 0.73 0.66 0.59 0.63 0.64 0.66 0.38 0.26
1.71 1.79 1.82 1.77 1.84 1.80 1.82 1.81 1.89 2.11 2.12 2.07 1.89 1.75 1.79 1.85 1.90 1.87 1.77 1.82 1.92 1.97 1.93 2.08 2.28 2.34 2.51 2.52 2.35 2.02 1.74 1.45 1.15 0.87 0.70 0.67 0.63 0.53 0.52 0.60 0.63 0.44 0.30
1.46 1.57 1.50 1.49 1.47 1.44 1.45 1.58 1.66 1.84 2.00 2.06 2.02 1.82 1.89 1.98 1.84 1.92 1.90 1.85 2.11 1.97 2.20 2.30 2.29 2.25 2.52 2.81 2.89 2.64 2.23 1.75 1.37 1.08 0.85 0.73 0.67 0.59 0.51 0.50 0.50 0.47 0.34
1.35 1.44 1.46 1.46 1.22 1.26 1.29 1.25 1.49 1.69 1.93 1.97 1.71 1.76 1.65 1.68 1.71 1.62 1.83 1.73 1.89 2.01 2.20 2.24 2.33 2.24 2.54 3.08 3.50 3.58 3.13 2.43 1.86 1.53 1.34 1.17 1.01 0.80 0.66 0.63 0.56 0.50 0.45
1.37 1.33 1.27 1.20 1.06 1.19 1.35 1.44 1.77 1.74 1.68 1.70 1.47 1.69 1.56 1.37 1.46 1.58 1.57 1.67 1.72 1.56 1.82 2.09 2.32 1.96 2.29 2.89 3.35 3.68 3.78 3.40 2.74 2.17 1.87 1.69 1.52 1.15 0.80 0.68 0.65 0.60 0.54
1.38 1.35 1.26 1.36 1.15 1.16 1.19 1.19 1.39 1.49 1.41 1.45 1.78 1.88 1.55 1.29 1.34 1.38 1.39 1.60 1.65 1.59 1.88 2.26 2.39 2.31 2.01 1.96 2.10 2.62 3.34 3.76 3.57 2.94 2.42 2.10 1.90 1.52 1.07 0.82 0.72 0.68 0.64
1.26 1.19 1.33 1.27 1.21 1.26 1.19 1.21 1.37 1.47 1.44 1.47 1.65 1.85 1.66 1.68 1.54 1.19 1.39 1.48 1.55 1.71 1.83 1.97 2.26 2.48 2.13 2.19 1.61 1.75 2.46 3.07 3.61 3.59 3.01 2.43 2.15 1.90 1.51 1.21 0.96 0.82 0.79
1.13 1.21 1.21 1.27 1.31 1.11 1.23 1.33 1.30 1.36 1.40 1.35 1.37 1.65 1.70 1.72 1.53 1.23 1.24 1.29 1.44 1.68 1.75 1.87 1.74 1.89 2.03 2.25 2.09 1.64 1.83 2.11 2.88 3.65 3.57 2.95 2.40 1.96 1.75 1.63 1.45 1.21 1.06
1.16 1.09 1.13 1.31 1.34 1.17 1.34 1.07 1.16 1.36 1.41 1.25 1.25 1.24 1.27 1.44 1.57 1.54 1.36 1.26 1.31 1.40 1.48 1.57 1.62 1.70 1.79 2.02 2.09 1.58 1.27 1.47 2.11 3.01 3.54 3.34 2.81 2.22 1.93 1.98 2.23 2.18 1.78
1.47 1.18 1.13 1.30 1.39 1.33 1.36 1.26 1.48 1.33 1.23 1.17 1.19 1.27 1.29 1.26 1.19 1.43 1.51 1.43 1.35 1.16 1.18 1.27 1.34 1.45 1.50 1.72 1.98 1.47 1.13 1.25 1.49 2.00 2.49 2.81 2.82 2.63 2.43 2.51 3.00 3.34 3.16
1.54 1.42 1.33 1.47 1.50 1.43 1.42 1.36 1.43 1.38 1.35 1.33 1.20 1.16 1.38 1.36 1.24 1.39 1.32 1.29 1.25 0.98 1.00 1.11 1.16 1.26 1.36 1.55 1.51 1.34 1.37 1.46 1.39 1.42 1.56 1.82 2.14 2.34 2.57 2.78 3.08 3.50 3.67
1.37 1.47 1.51 1.61 1.51 1.48 1.42 1.42 1.44 1.47 1.51 1.52 1.35 1.16 1.16 1.25 1.26 1.26 1.25 1.13 1.12 1.02 1.06 1.02 1.07 1.27 1.41 1.77 1.80 1.59 1.56 1.65 1.44 1.28 1.22 1.25 1.39 1.64 1.90 2.19 2.59 2.99 3.38
1.34 1.47 1.52 1.43 1.40 1.39 1.32 1.43 1.34 1.30 1.34 1.41 1.33 1.51 1.43 1.19 1.30 1.34 1.37 1.49 1.45 1.37 1.37 1.34 1.43 1.58 1.75 1.86 1.99 1.80 1.52 1.40 1.17 1.10 1.07 1.06 1.11 1.22 1.37 1.51 1.70 1.97 2.21
1.31 1.34 1.28 1.27 1.29 1.30 1.39 1.50 1.42 1.35 1.39 1.31 1.33 1.64 1.56 1.28 1.27 1.33 1.40 1.59 1.83 1.72 1.59 1.65 1.79 1.91 1.87 1.87 1.89 1.72 1.54 1.41 1.19 1.05 1.02 1.00 0.99 1.00 1.03 1.07 1.12 1.26 1.38
1.27 1.31 1.26 1.26 1.26 1.18 1.24 1.41 1.37 1.41 1.48 1.46 1.46 1.51 1.53 1.46 1.44 1.48 1.53 1.63 1.84 1.87 1.75 1.70 1.93 2.03 1.87 1.72 1.86 1.81 1.64 1.53 1.26 1.07 0.96 0.94 0.95 0.96 0.97 0.96 0.93 0.94 0.98
1.28 1.31 1.32 1.34 1.31 1.26 1.28 1.36 1.31 1.40 1.48 1.58 1.58 1.53 1.53 1.67 1.70 1.59 1.62 1.66 1.81 2.01 1.98 1.87 2.02 2.06 1.93 1.71 1.66 1.67 1.62 1.56 1.37 1.28 1.09 0.99 0.94 0.93 0.91 0.93 0.96 0.95 0.89
1.30 1.28 1.31 1.39 1.31 1.30 1.33 1.26 1.27 1.35 1.46 1.53 1.63 1.77 1.78 1.80 1.76 1.68 1.74 1.77 1.90 2.13 2.15 2.03 2.01 2.04 1.97 1.85 1.73 1.55 1.37 1.33 1.34 1.45 1.27 1.12 1.03 1.00 0.96 0.92 0.90 0.88 0.85
1.37 1.34 1.29 1.31 1.35 1.38 1.38 1.26 1.23 1.26 1.25 1.25 1.39 1.66 1.91 2.15 2.05 1.89 1.83 1.80 1.87 1.98 2.16 2.04 1.99 2.13 2.10 1.97 1.81 1.56 1.38 1.33 1.16 1.23 1.24 1.14 1.02 0.94 0.89 0.85 0.83 0.80 0.75
1.34 1.40 1.41 1.41 1.39 1.38 1.36 1.35 1.37 1.33 1.27 1.21 1.25 1.36 1.51 1.73 1.91 2.02 1.87 1.73 1.76 1.89 2.05 2.10 2.19 2.43 2.49 2.31 1.99 1.74 1.61 1.46 1.30 1.08 1.11 1.06 0.99 0.92 0.89 0.86 0.82 0.80 0.79
1.39 1.54 1.61 1.58 1.53 1.49 1.38 1.44 1.53 1.42 1.43 1.36 1.33 1.31 1.26 1.35 1.49 1.65 1.67 1.80 1.84 1.85 1.98 2.10 2.32 2.73 2.75 2.48 2.04 1.81 1.73 1.66 1.45 1.23 1.13 0.99 0.90 0.83 0.85 0.90 0.89 0.84 0.78
1.75 1.82 1.77 1.73 1.70 1.52 1.56 1.53 1.50 1.52 1.59 1.58 1.54 1.49 1.37 1.27 1.29 1.37 1.43 1.53 1.70 1.77 1.85 1.97 2.18 2.49 2.61 2.47 2.19 1.95 1.74 1.60 1.46 1.32 1.22 1.17 1.02 0.96 0.87 0.80 0.89 0.87 0.83
1.80 1.90 1.98 1.96 1.90 1.93 1.81 1.52 1.47 1.50 1.60 1.65 1.73 1.76 1.48 1.26 1.33 1.29 1.37 1.38 1.39 1.49 1.60 1.71 1.93 2.14 2.44 2.53 2.37 2.00 1.82 1.67 1.44 1.31 1.26 1.22 1.12 1.01 0.89 0.84 0.89 0.77 0.74
1.70 1.68 1.68 1.66 1.69 1.68 1.61 1.38 1.30 1.24 1.38 1.47 1.48 1.48 1.46 1.33 1.23 1.24 1.26 1.21 1.16 1.17 1.22 1.27 1.41 1.68 1.97 2.32 2.50 2.28 2.09 1.90 1.65 1.43 1.21 1.19 1.15 1.03 0.89 0.81 0.87 0.76 0.65
1.59 1.51 1.47 1.46 1.47 1.51 1.46 1.28 1.20 1.13 1.20 1.24 1.23 1.24 1.28 1.20 1.18 1.05 1.01 1.04 1.02 0.99 0.96 0.98 1.04 1.21 1.47 1.79 2.13 2.26 1.99 1.67 1.52 1.32 1.15 1.05 0.99 1.01 0.97 0.82 0.79 0.81 0.68
1.77 1.69 1.63 1.60 1.58 1.63 1.66 1.41 1.28 1.20 1.28 1.30 1.36 1.36 1.31 1.16 1.10 0.93 0.86 0.92 0.88 0.81 0.82 0.80 0.79 0.85 0.97 1.24 1.60 1.75 1.80 1.56 1.33 1.20 0.93 0.86 0.82 0.84 0.89 0.76 0.62 0.61 0.62

GEFSMA_prec_meanprecacc_204.txt.gz
Total_Precipitation_Accumulation
2.29 2.42 2.24 2.11 1.83 1.99 2.26 2.38 2.17 2.38 2.37 2.35 2.30 2.27 2.28 2.01 1.85 1.80 1.85 2.02 1.94 1.88 2.04 2.10 2.01 1.97 1.90 1.73 1.58 1.37 1.19 1.10 0.98 0.86 0.78 0.71 0.66 0.58 0.52 0.39 0.34 0.27 0.23
2.04 2.10 2.02 1.99 1.90 1.98 2.16 2.17 2.16 2.43 2.53 2.47 2.15 2.00 1.99 2.02 1.93 1.79 1.93 2.03 2.05 1.86 1.95 2.23 2.34 2.33 2.35 2.17 1.93 1.69 1.45 1.27 1.05 0.86 0.78 0.74 0.67 0.61 0.64 0.65 0.67 0.39 0.27
1.76 1.85 1.86 1.81 1.87 1.83 1.85 1.84 1.92 2.15 2.15 2.11 1.93 1.79 1.83 1.89 1.93 1.90 1.81 1.86 1.96 2.02 1.98 2.14 2.33 2.39 2.57 2.56 2.38 2.04 1.76 1.47 1.17 0.89 0.73 0.69 0.65 0.55 0.54 0.61 0.65 0.45 0.31
1.52 1.63 1.55 1.53 1.52 1.48 1.48 1.64 1.72 1.90 2.05 2.11 2.05 1.85 1.92 2.00 1.87 1.95 1.93 1.89 2.15 2.00 2.24 2.37 2.35 2.31 2.59 2.86 2.95 2.70 2.28 1.78 1.40 1.11 0.88 0.75 0.70 0.61 0.54 0.52 0.52 0.49 0.35
1.41 1.50 1.50 1.50 1.27 1.30 1.33 1.31 1.57 1.75 1.99 2.01 1.73 1.79 1.67 1.71 1.74 1.64 1.86 1.76 1.93 2.06 2.25 2.32 2.40 2.29 2.60 3.14 3.59 3.67 3.19 2.48 1.90 1.57 1.39 1.21 1.05 0.83 0.69 0.66 0.59 0.54 0.48
1.43 1.39 1.31 1.24 1.10 1.24 1.40 1.51 1.85 1.79 1.72 1.73 1.51 1.74 1.60 1.40 1.50 1.62 1.61 1.70 1.77 1.63 1.89 2.17 2.40 2.01 2.35 2.97 3.43 3.76 3.85 3.45 2.78 2.22 1.92 1.73 1.56 1.19 0.83 0.70 0.67 0.63 0.57
1.43 1.40 1.30 1.40 1.19 1.20 1.22 1.25 1.44 1.53 1.45 1.49 1.84 1.96 1.62 1.36 1.40 1.44 1.45 1.68 1.74 1.70 1.96 2.33 2.47 2.38 2.09 2.04 2.17 2.70 3.43 3.84 3.64 3.01 2.49 2.15 1.95 1.57 1.12 0.86 0.75 0.70 0.66
1.29 1.22 1.37 1.30 1.24 1.29 1.22 1.25 1.42 1.52 1.48 1.52 1.73 1.93 1.73 1.78 1.63 1.24 1.46 1.55 1.61 1.79 1.93 2.05 2.35 2.57 2.25 2.30 1.69 1.81 2.55 3.17 3.72 3.71 3.11 2.50 2.22 1.96 1.58 1.27 1.01 0.85 0.80
1.15 1.23 1.23 1.29 1.34 1.12 1.25 1.36 1.35 1.41 1.45 1.41 1.43 1.72 1.77 1.78 1.59 1.29 1.29 1.35 1.52 1.78 1.90 2.02 1.88 2.04 2.20 2.45 2.26 1.74 1.91 2.18 2.96 3.75 3.66 3.02 2.45 2.01 1.79 1.67 1.50 1.25 1.09
1.19 1.11 1.14 1.33 1.36 1.19 1.35 1.09 1.19 1.40 1.45 1.29 1.32 1.31 1.34 1.50 1.62 1.60 1.41 1.32 1.39 1.50 1.61 1.74 1.85 1.93 1.98 2.24 2.33 1.70 1.34 1.51 2.17 3.10 3.63 3.42 2.88 2.27 1.97 2.02 2.27 2.22 1.82
1.50 1.21 1.15 1.31 1.40 1.35 1.37 1.28 1.50 1.36 1.27 1.22 1.26 1.33 1.36 1.33 1.23 1.47 1.55 1.48 1.42 1.24 1.27 1.38 1.48 1.56 1.58 1.81 2.06 1.54 1.21 1.33 1.57 2.09 2.58 2.91 2.90 2.70 2.49 2.56 3.05 3.41 3.22
1.55 1.45 1.35 1.48 1.51 1.45 1.45 1.39 1.45 1.40 1.38 1.36 1.25 1.23 1.45 1.43 1.31 1.44 1.36 1.32 1.29 1.03 1.05 1.19 1.25 1.34 1.43 1.63 1.60 1.43 1.47 1.57 1.49 1.51 1.63 1.89 2.22 2.42 2.63 2.83 3.13 3.56 3.77
1.38 1.48 1.52 1.63 1.53 1.50 1.45 1.46 1.48 1.50 1.54 1.55 1.41 1.23 1.23 1.33 1.35 1.35 1.32 1.18 1.15 1.06 1.11 1.08 1.12 1.31 1.45 1.83 1.89 1.69 1.64 1.77 1.53 1.36 1.29 1.30 1.44 1.68 1.93 2.23 2.63 3.07 3.47
1.35 1.48 1.55 1.46 1.42 1.42 1.35 1.47 1.38 1.34 1.38 1.45 1.39 1.57 1.49 1.26 1.37 1.41 1.47 1.58 1.52 1.43 1.42 1.39 1.48 1.64 1.80 1.93 2.07 1.88 1.60 1.49 1.27 1.17 1.13 1.11 1.15 1.25 1.40 1.53 1.72 2.00 2.24
1.33 1.36 1.31 1.29 1.32 1.33 1.43 1.54 1.45 1.39 1.45 1.37 1.38 1.68 1.59 1.31 1.30 1.38 1.46 1.66 1.90 1.76 1.63 1.69 1.83 1.97 1.95 1.96 1.97 1.79 1.61 1.49 1.26 1.12 1.07 1.03 1.02 1.03 1.05 1.08 1.13 1.28 1.41
1.29 1.35 1.31 1.30 1.30 1.22 1.28 1.46 1.41 1.45 1.53 1.53 1.51 1.55 1.57 1.48 1.46 1.50 1.56 1.68 1.91 1.93 1.79 1.74 1.98 2.09 1.94 1.79 1.95 1.89 1.70 1.59 1.31 1.13 1.01 0.98 0.98 0.98 0.99 0.98 0.95 0.97 1.01
1.31 1.34 1.36 1.39 1.35 1.31 1.33 1.41 1.35 1.45 1.53 1.62 1.62 1.56 1.56 1.69 1.72 1.61 1.66 1.72 1.89 2.09 2.02 1.91 2.07 2.11 1.99 1.79 1.74 1.74 1.68 1.60 1.41 1.32 1.13 1.03 0.98 0.95 0.93 0.95 0.99 0.97 0.92
1.34 1.33 1.36 1.44 1.36 1.36 1.40 1.32 1.35 1.44 1.53 1.57 1.66 1.80 1.81 1.83 1.78 1.70 1.76 1.81 1.95 2.19 2.21 2.08 2.06 2.09 2.02 1.92 1.81 1.64 1.46 1.40 1.39 1.48 1.30 1.15 1.06 1.02 0.99 0.95 0.93 0.90 0.87
1.42 1.39 1.35 1.38 1.42 1.48 1.50 1.36 1.32 1.32 1.30 1.29 1.43 1.68 1.92 2.16 2.06 1.91 1.85 1.83 1.90 2.02 2.20 2.08 2.02 2.17 2.15 2.03 1.88 1.65 1.47 1.39 1.21 1.28 1.29 1.19 1.05 0.97 0.91 0.87 0.85 0.83 0.78
1.39 1.45 1.47 1.46 1.45 1.44 1.42 1.40 1.42 1.37 1.30 1.23 1.27 1.38 1.52 1.74 1.93 2.04 1.89 1.76 1.81 1.93 2.09 2.13 2.21 2.47 2.54 2.37 2.06 1.80 1.67 1.52 1.35 1.16 1.17 1.12 1.03 0.95 0.91 0.88 0.84 0.82 0.81
1.42 1.57 1.64 1.61 1.56 1.52 1.42 1.49 1.58 1.47 1.46 1.38 1.35 1.33 1.28 1.38 1.52 1.68 1.71 1.85 1.89 1.90 2.03 2.14 2.36 2.78 2.80 2.54 2.10 1.86 1.78 1.71 1.51 1.29 1.18 1.03 0.92 0.84 0.86 0.92 0.91 0.86 0.80
1.79 1.85 1.80 1.76 1.72 1.55 1.62 1.61 1.58 1.57 1.63 1.61 1.56 1.50 1.38 1.30 1.32 1.40 1.46 1.57 1.74 1.82 1.91 2.02 2.22 2.53 2.65 2.51 2.23 2.00 1.79 1.66 1.51 1.36 1.25 1.19 1.04 0.97 0.88 0.81 0.91 0.89 0.85
1.87 1.95 2.01 2.00 1.95 1.98 1.88 1.60 1.52 1.53 1.63 1.67 1.74 1.77 1.49 1.28 1.35 1.32 1.40 1.41 1.42 1.54 1.64 1.76 1.97 2.18 2.47 2.56 2.41 2.04 1.86 1.70 1.46 1.34 1.28 1.24 1.15 1.03 0.91 0.86 0.91 0.79 0.76
1.78 1.74 1.74 1.71 1.74 1.75 1.70 1.46 1.37 1.28 1.42 1.49 1.50 1.49 1.47 1.35 1.25 1.26 1.28 1.23 1.18 1.20 1.25 1.29 1.43 1.70 2.00 2.34 2.52 2.30 2.11 1.91 1.66 1.45 1.23 1.21 1.17 1.06 0.92 0.83 0.90 0.77 0.67
1.68 1.59 1.54 1.52 1.54 1.60 1.59 1.40 1.28 1.18 1.23 1.26 1.25 1.26 1.30 1.22 1.20 1.07 1.03 1.05 1.03 1.00 0.98 1.00 1.07 1.23 1.49 1.80 2.15 2.28 2.01 1.68 1.53 1.33 1.16 1.07 1.02 1.04 0.99 0.84 0.81 0.83 0.70
1.86 1.78 1.71 1.70 1.68 1.73 1.77 1.53 1.38 1.26 1.32 1.33 1.40 1.38 1.33 1.19 1.13 0.96 0.90 0.94 0.91 0.84 0.85 0.83 0.81 0.87 0.99 1.26 1.63 1.77 1.83 1.59 1.35 1.21 0.95 0.88 0.85 0.87 0.91 0.79 0.65 0.64 0.64

GEFSMA_prec_meanprecacc_210.txt.gz
Total_Precipitation_Accumulation
2.31 2.43 2.26 2.12 1.85 2.02 2.29 2.40 2.19 2.41 2.39 2.37 2.34 2.33 2.32 2.03 1.86 1.82 1.87 2.05 2.00 1.95 2.12 2.17 2.06 2.02 1.95 1.79 1.63 1.40 1.22 1.12 1.01 0.88 0.79 0.73 0.68 0.59 0.54 0.41 0.35 0.28 0.25
2.07 2.13 2.04 2.00 1.91 1.98 2.17 2.18 2.18 2.45 2.55 2.49 2.19 2.04 2.03 2.04 1.95 1.81 1.95 2.07 2.11 1.91 2.00 2.29 2.39 2.38 2.40 2.22 1.99 1.74 1.50 1.31 1.08 0.89 0.80 0.77 0.69 0.63 0.67 0.67 0.68 0.40 0.28
1.80 1.88 1.89 1.83 1.89 1.84 1.87 1.87 1.95 2.18 2.17 2.14 1.96 1.83 1.86 1.91 1.96 1.92 1.82 1.88 1.99 2.06 2.04 2.19 2.38 2.45 2.64 2.63 2.46 2.11 1.82 1.53 1.23 0.94 0.76 0.71 0.67 0.58 0.57 0.63 0.67 0.47 0.33
1.55 1.66 1.58 1.56 1.55 1.50 1.50 1.67 1.77 1.95 2.09 2.13 2.08 1.88 1.95 2.03 1.90 1.96 1.94 1.90 2.16 2.02 2.28 2.43 2.41 2.37 2.66 2.93 3.04 2.80 2.37 1.86 1.46 1.15 0.92 0.78 0.73 0.65 0.57 0.55 0.54 0.51 0.38
1.45 1.53 1.54 1.54 1.31 1.34 1.37 1.35 1.63 1.80 2.02 2.04 1.77 1.82 1.71 1.75 1.78 1.67 1.87 1.77 1.94 2.08 2.27 2.36 2.48 2.38 2.67 3.24 3.70 3.80 3.30 2.56 1.97 1.64 1.45 1.26 1.08 0.86 0.72 0.68 0.62 0.56 0.51
1.47 1.42 1.35 1.29 1.15 1.28 1.43 1.56 1.93 1.85 1.77 1.78 1.54 1.77 1.63 1.43 1.53 1.64 1.63 1.73 1.81 1.68 1.93 2.22 2.47 2.08 2.44 3.07 3.54 3.90 3.99 3.59 2.89 2.29 1.99 1.79 1.61 1.23 0.86 0.73 0.70 0.66 0.60
1.49 1.45 1.36 1.46 1.24 1.24 1.26 1.30 1.49 1.59 1.51 1.54 1.87 2.00 1.64 1.38 1.43 1.46 1.47 1.71 1.79 1.75 2.01 2.37 2.51 2.44 2.15 2.12 2.28 2.86 3.58 3.99 3.78 3.14 2.62 2.26 2.04 1.65 1.18 0.92 0.79 0.74 0.69
1.37 1.29 1.45 1.38 1.30 1.34 1.27 1.28 1.46 1.57 1.53 1.57 1.77 1.97 1.75 1.80 1.65 1.27 1.49 1.59 1.64 1.84 1.97 2.09 2.39 2.61 2.30 2.35 1.74 1.87 2.64 3.29 3.90 3.88 3.28 2.63 2.31 2.05 1.66 1.35 1.09 0.92 0.85
1.23 1.32 1.32 1.39 1.42 1.19 1.30 1.39 1.38 1.45 1.50 1.45 1.46 1.74 1.78 1.81 1.62 1.31 1.30 1.37 1.54 1.80 1.92 2.04 1.91 2.09 2.25 2.51 2.32 1.80 1.97 2.26 3.09 3.92 3.83 3.16 2.56 2.10 1.87 1.74 1.57 1.30 1.15
1.25 1.18 1.21 1.41 1.45 1.26 1.40 1.12 1.23 1.43 1.49 1.33 1.35 1.34 1.37 1.52 1.64 1.62 1.42 1.33 1.41 1.52 1.64 1.76 1.89 2.00 2.06 2.33 2.39 1.75 1.38 1.55 2.23 3.22 3.77 3.58 3.02 2.40 2.06 2.10 2.36 2.30 1.88
1.55 1.27 1.22 1.39 1.50 1.44 1.44 1.32 1.53 1.38 1.30 1.26 1.29 1.37 1.40 1.36 1.26 1.50 1.57 1.49 1.43 1.25 1.28 1.40 1.51 1.61 1.65 1.88 2.11 1.59 1.26 1.38 1.63 2.18 2.71 3.04 3.02 2.80 2.57 2.64 3.12 3.47 3.29
1.58 1.48 1.41 1.56 1.60 1.53 1.52 1.44 1.49 1.42 1.40 1.40 1.29 1.26 1.49 1.48 1.35 1.48 1.38 1.34 1.31 1.05 1.08 1.21 1.28 1.37 1.48 1.70 1.66 1.49 1.53 1.64 1.55 1.57 1.70 1.97 2.30 2.52 2.73 2.92 3.21 3.64 3.84
1.40 1.50 1.57 1.70 1.60 1.56 1.51 1.51 1.52 1.53 1.57 1.59 1.45 1.28 1.29 1.40 1.41 1.39 1.36 1.21 1.18 1.09 1.14 1.11 1.14 1.33 1.47 1.85 1.91 1.71 1.67 1.81 1.58 1.41 1.34 1.35 1.51 1.77 2.03 2.33 2.74 3.17 3.56
1.36 1.49 1.58 1.51 1.48 1.48 1.40 1.51 1.43 1.40 1.45 1.50 1.43 1.61 1.54 1.32 1.44 1.47 1.52 1.63 1.57 1.46 1.45 1.42 1.50 1.65 1.81 1.95 2.10 1.92 1.64 1.54 1.33 1.23 1.19 1.17 1.23 1.32 1.46 1.60 1.80 2.08 2.32
1.34 1.38 1.33 1.33 1.36 1.39 1.48 1.59 1.51 1.45 1.52 1.43 1.43 1.73 1.63 1.37 1.36 1.43 1.50 1.71 1.95 1.79 1.64 1.70 1.84 1.98 1.97 1.98 2.00 1.82 1.64 1.53 1.31 1.18 1.12 1.08 1.07 1.08 1.11 1.14 1.20 1.34 1.46
1.31 1.37 1.33 1.33 1.33 1.27 1.33 1.50 1.44 1.49 1.58 1.58 1.59 1.62 1.62 1.52 1.51 1.54 1.59 1.72 1.95 1.96 1.81 1.75 1.99 2.11 1.97 1.80 1.97 1.91 1.73 1.62 1.36 1.18 1.06 1.03 1.03 1.04 1.05 1.03 1.01 1.03 1.07
1.33 1.37 1.39 1.42 1.39 1.35 1.37 1.45 1.40 1.50 1.58 1.67 1.67 1.61 1.61 1.75 1.77 1.65 1.69 1.74 1.92 2.11 2.04 1.92 2.08 2.12 2.01 1.80 1.77 1.77 1.70 1.63 1.45 1.38 1.20 1.12 1.06 1.02 1.00 1.01 1.05 1.04 0.99
1.42 1.41 1.44 1.50 1.42 1.44 1.49 1.40 1.41 1.49 1.56 1.60 1.69 1.83 1.84 1.87 1.82 1.73 1.79 1.83 1.97 2.22 2.23 2.10 2.07 2.10 2.03 1.94 1.84 1.67 1.49 1.45 1.45 1.57 1.40 1.24 1.15 1.11 1.05 1.00 0.97 0.95 0.92
1.51 1.48 1.42 1.44 1.49 1.55 1.55 1.40 1.36 1.36 1.33 1.32 1.45 1.71 1.95 2.19 2.09 1.93 1.87 1.85 1.92 2.04 2.22 2.10 2.03 2.19 2.16 2.05 1.90 1.67 1.50 1.42 1.25 1.34 1.36 1.25 1.11 1.02 0.97 0.93 0.91 0.88 0.82
1.43 1.49 1.50 1.49 1.48 1.47 1.45 1.43 1.44 1.39 1.32 1.25 1.28 1.39 1.53 1.76 1.95 2.06 1.91 1.78 1.83 1.96 2.11 2.15 2.23 2.48 2.55 2.39 2.08 1.83 1.70 1.56 1.39 1.19 1.22 1.17 1.08 0.99 0.96 0.94 0.91 0.89 0.88
1.49 1.61 1.68 1.65 1.59 1.55 1.45 1.54 1.63 1.51 1.50 1.42 1.38 1.35 1.29 1.39 1.54 1.70 1.73 1.88 1.92 1.93 2.05 2.16 2.37 2.80 2.83 2.58 2.15 1.91 1.83 1.77 1.56 1.34 1.23 1.07 0.96 0.88 0.89 0.95 0.95 0.91 0.85
1.87 1.92 1.85 1.80 1.76 1.58 1.66 1.65 1.62 1.61 1.67 1.64 1.58 1.52 1.40 1.31 1.34 1.42 1.49 1.61 1.78 1.85 1.93 2.04 2.24 2.55 2.68 2.55 2.28 2.03 1.82 1.69 1.55 1.40 1.28 1.21 1.06 0.99 0.90 0.83 0.93 0.92 0.89
2.02 2.04 2.10 2.06 1.99 2.01 1.92 1.64 1.58 1.58 1.67 1.70 1.77 1.79 1.51 1.29 1.37 1.34 1.43 1.44 1.46 1.57 1.68 1.79 1.99 2.19 2.48 2.59 2.45 2.07 1.89 1.73 1.49 1.36 1.30 1.25 1.16 1.04 0.92 0.88 0.94 0.82 0.81
1.98 1.93 1.87 1.80 1.80 1.79 1.74 1.51 1.42 1.34 1.46 1.53 1.54 1.53 1.51 1.38 1.28 1.28 1.30 1.24 1.20 1.22 1.29 1.33 1.46 1.72 2.02 2.37 2.55 2.32 2.13 1.93 1.68 1.46 1.25 1.22 1.18 1.07 0.94 0.85 0.93 0.81 0.72
1.85 1.75 1.65 1.59 1.59 1.63 1.64 1.46 1.36 1.25 1.28 1.31 1.30 1.32 1.35 1.26 1.25 1.12 1.05 1.07 1.05 1.02 1.01 1.03 1.09 1.25 1.52 1.84 2.19 2.31 2.05 1.72 1.57 1.36 1.20 1.10 1.05 1.08 1.04 0.89 0.87 0.90 0.76
1.94 1.86 1.78 1.74 1.73 1.77 1.84 1.62 1.47 1.34 1.39 1.40 1.47 1.45 1.39 1.24 1.18 1.01 0.92 0.96 0.92 0.86 0.87 0.86 0.84 0.89 1.02 1.29 1.67 1.82 1.88 1.64 1.41 1.27 1.01 0.94 0.91 0.93 0.99 0.85 0.70 0.70 0.70

GEFSMA_prec_meanprecacc_216.txt.gz
Total_Precipitation_Accumulation
2.39 2.52 2.37 2.25 1.98 2.12 2.38 2.48 2.24 2.46 2.44 2.41 2.36 2.35 2.34 2.05 1.88 1.84 1.89 2.06 2.02 1.99 2.18 2.24 2.13 2.08 2.02 1.84 1.66 1.43 1.24 1.14 1.02 0.90 0.80 0.75 0.70 0.61 0.55 0.42 0.36 0.29 0.26
2.13 2.19 2.12 2.10 1.99 2.05 2.23 2.23 2.20 2.49 2.59 2.53 2.22 2.06 2.05 2.05 1.97 1.84 1.97 2.10 2.14 1.96 2.07 2.36 2.48 2.45 2.47 2.28 2.03 1.77 1.53 1.34 1.11 0.92 0.82 0.79 0.72 0.67 0.70 0.69 0.70 0.42 0.30
1.87 1.96 1.96 1.91 1.96 1.91 1.94 1.92 1.98 2.21 2.20 2.17 2.00 1.85 1.88 1.93 1.98 1.94 1.86 1.93 2.03 2.10 2.08 2.24 2.45 2.51 2.70 2.71 2.54 2.18 1.88 1.58 1.27 0.97 0.79 0.75 0.72 0.62 0.61 0.66 0.69 0.49 0.34
1.63 1.74 1.64 1.63 1.62 1.57 1.58 1.77 1.84 2.01 2.15 2.19 2.15 1.92 1.97 2.05 1.92 2.00 1.99 1.95 2.20 2.06 2.34 2.47 2.45 2.41 2.72 3.03 3.13 2.89 2.44 1.91 1.50 1.20 0.96 0.83 0.78 0.69 0.60 0.58 0.57 0.54 0.40
1.52 1.61 1.62 1.62 1.37 1.42 1.47 1.44 1.71 1.87 2.11 2.13 1.82 1.87 1.75 1.78 1.81 1.70 1.92 1.82 1.98 2.12 2.34 2.41 2.51 2.41 2.71 3.33 3.80 3.90 3.40 2.65 2.04 1.69 1.51 1.32 1.14 0.90 0.76 0.72 0.65 0.59 0.53
1.52 1.51 1.42 1.37 1.21 1.36 1.55 1.68 2.04 1.96 1.88 1.88 1.59 1.82 1.66 1.45 1.55 1.67 1.67 1.77 1.85 1.71 1.97 2.28 2.54 2.13 2.47 3.13 3.61 3.99 4.09 3.71 2.99 2.37 2.07 1.87 1.68 1.30 0.91 0.78 0.74 0.69 0.64
1.55 1.55 1.45 1.56 1.33 1.33 1.39 1.43 1.61 1.70 1.61 1.64 1.98 2.09 1.71 1.41 1.46 1.48 1.49 1.74 1.81 1.78 2.05 2.43 2.57 2.51 2.21 2.15 2.31 2.91 3.67 4.11 3.91 3.26 2.76 2.38 2.14 1.73 1.26 0.98 0.84 0.78 0.74
1.46 1.38 1.57 1.48 1.39 1.45 1.40 1.41 1.57 1.66 1.61 1.66 1.87 2.08 1.85 1.87 1.68 1.28 1.51 1.61 1.67 1.88 2.00 2.12 2.42 2.67 2.35 2.41 1.78 1.90 2.69 3.38 4.02 4.01 3.42 2.75 2.39 2.11 1.73 1.41 1.15 0.96 0.89
1.32 1.44 1.43 1.50 1.54 1.30 1.44 1.52 1.49 1.53 1.58 1.53 1.54 1.85 1.88 1.89 1.68 1.34 1.32 1.39 1.57 1.85 1.94 2.07 1.94 2.13 2.29 2.57 2.38 1.85 2.00 2.29 3.15 4.01 3.95 3.26 2.63 2.17 1.93 1.80 1.63 1.35 1.19
1.32 1.29 1.32 1.53 1.59 1.37 1.53 1.22 1.30 1.51 1.58 1.43 1.45 1.42 1.45 1.61 1.73 1.69 1.47 1.37 1.45 1.56 1.67 1.80 1.92 2.04 2.11 2.37 2.45 1.80 1.41 1.57 2.27 3.28 3.87 3.67 3.09 2.46 2.13 2.17 2.41 2.35 1.92
1.61 1.36 1.35 1.53 1.63 1.54 1.54 1.42 1.62 1.46 1.36 1.33 1.37 1.44 1.46 1.43 1.33 1.56 1.65 1.58 1.50 1.31 1.33 1.44 1.54 1.65 1.68 1.94 2.20 1.65 1.29 1.41 1.66 2.21 2.74 3.12 3.11 2.88 2.66 2.72 3.19 3.54 3.35
1.63 1.55 1.52 1.70 1.72 1.62 1.60 1.52 1.57 1.49 1.46 1.46 1.36 1.33 1.55 1.54 1.42 1.55 1.46 1.45 1.43 1.16 1.17 1.27 1.31 1.40 1.52 1.74 1.70 1.51 1.55 1.66 1.58 1.60 1.72 1.99 2.35 2.60 2.82 3.02 3.30 3.73 3.94
1.43 1.55 1.64 1.82 1.71 1.64 1.57 1.58 1.59 1.60 1.63 1.65 1.52 1.35 1.35 1.45 1.47 1.46 1.43 1.28 1.26 1.19 1.23 1.18 1.19 1.35 1.49 1.88 1.97 1.73 1.68 1.82 1.59 1.43 1.36 1.38 1.54 1.81 2.09 2.40 2.83 3.28 3.67
1.39 1.53 1.62 1.57 1.54 1.53 1.45 1.59 1.51 1.48 1.52 1.56 1.48 1.68 1.60 1.38 1.50 1.52 1.59 1.71 1.63 1.54 1.52 1.48 1.53 1.67 1.84 1.99 2.14 1.94 1.66 1.56 1.34 1.25 1.22 1.21 1.26 1.35 1.50 1.65 1.86 2.16 2.42
1.37 1.40 1.36 1.37 1.41 1.44 1.53 1.67 1.58 1.52 1.59 1.49 1.49 1.79 1.70 1.44 1.43 1.50 1.58 1.80 2.04 1.86 1.71 1.76 1.90 2.01 2.00 2.01 2.02 1.85 1.68 1.55 1.33 1.19 1.14 1.10 1.09 1.10 1.15 1.20 1.28 1.43 1.56
1.34 1.39 1.36 1.37 1.38 1.31 1.38 1.54 1.48 1.55 1.63 1.62 1.63 1.69 1.69 1.59 1.58 1.62 1.68 1.80 2.02 2.03 1.86 1.80 2.04 2.14 2.00 1.83 2.00 1.94 1.75 1.63 1.37 1.19 1.07 1.04 1.06 1.08 1.09 1.09 1.09 1.14 1.19
1.37 1.40 1.42 1.45 1.43 1.39 1.42 1.50 1.43 1.54 1.61 1.72 1.72 1.65 1.65 1.79 1.82 1.71 1.75 1.79 1.96 2.15 2.09 1.97 2.11 2.15 2.04 1.84 1.80 1.80 1.73 1.66 1.47 1.40 1.22 1.13 1.09 1.06 1.06 1.08 1.12 1.12 1.09
1.47 1.46 1.47 1.53 1.46 1.48 1.53 1.44 1.45 1.52 1.59 1.63 1.72 1.86 1.87 1.90 1.86 1.77 1.83 1.86 2.01 2.26 2.27 2.14 2.11 2.13 2.07 1.98 1.87 1.71 1.52 1.47 1.46 1.58 1.41 1.27 1.19 1.15 1.10 1.05 1.02 1.00 0.96
1.56 1.52 1.46 1.48 1.53 1.60 1.60 1.44 1.40 1.39 1.36 1.34 1.48 1.74 1.98 2.23 2.12 1.96 1.90 1.89 1.97 2.08 2.26 2.14 2.07 2.22 2.19 2.08 1.92 1.69 1.52 1.45 1.26 1.35 1.38 1.27 1.14 1.05 1.00 0.96 0.94 0.91 0.86
1.47 1.53 1.55 1.53 1.51 1.50 1.48 1.47 1.48 1.43 1.35 1.27 1.31 1.42 1.57 1.79 1.99 2.10 1.95 1.82 1.88 2.01 2.16 2.19 2.27 2.52 2.58 2.41 2.11 1.86 1.73 1.58 1.43 1.23 1.25 1.19 1.10 1.01 0.98 0.95 0.92 0.91 0.90
1.52 1.65 1.72 1.68 1.62 1.57 1.48 1.57 1.67 1.54 1.53 1.44 1.40 1.38 1.31 1.43 1.57 1.74 1.75 1.92 1.97 1.97 2.09 2.20 2.40 2.82 2.85 2.61 2.17 1.94 1.85 1.79 1.60 1.37 1.26 1.10 0.98 0.89 0.90 0.96 0.96 0.92 0.87
1.93 1.97 1.89 1.83 1.79 1.60 1.69 1.69 1.66 1.65 1.71 1.67 1.61 1.55 1.44 1.35 1.38 1.47 1.53 1.66 1.82 1.88 1.95 2.07 2.26 2.57 2.71 2.58 2.31 2.06 1.85 1.73 1.59 1.43 1.32 1.25 1.09 1.01 0.91 0.84 0.94 0.93 0.91
2.07 2.11 2.15 2.10 2.03 2.05 1.97 1.68 1.62 1.62 1.70 1.72 1.80 1.83 1.55 1.33 1.42 1.39 1.48 1.50 1.49 1.58 1.69 1.81 2.02 2.22 2.52 2.62 2.48 2.10 1.92 1.76 1.52 1.40 1.34 1.29 1.19 1.08 0.94 0.89 0.96 0.84 0.83
2.02 1.99 1.94 1.87 1.85 1.83 1.78 1.54 1.44 1.36 1.48 1.55 1.56 1.56 1.55 1.42 1.33 1.34 1.36 1.29 1.23 1.25 1.31 1.35 1.48 1.75 2.04 2.41 2.59 2.37 2.18 1.97 1.71 1.50 1.29 1.26 1.21 1.09 0.96 0.87 0.95 0.83 0.74
1.89 1.79 1.70 1.67 1.65 1.68 1.69 1.50 1.38 1.26 1.30 1.32 1.33 1.35 1.39 1.30 1.31 1.20 1.13 1.13 1.11 1.06 1.05 1.07 1.12 1.29 1.55 1.88 2.23 2.37 2.10 1.77 1.60 1.39 1.24 1.14 1.08 1.11 1.08 0.94 0.91 0.94 0.79
2.00 1.91 1.82 1.80 1.77 1.81 1.90 1.66 1.51 1.37 1.42 1.43 1.50 1.47 1.42 1.29 1.24 1.09 1.00 1.02 0.98 0.91 0.93 0.91 0.88 0.94 1.06 1.33 1.71 1.86 1.93 1.70 1.46 1.32 1.06 0.99 0.96 0.98 1.04 0.90 0.75 0.74 0.73

GEFSMA_prec_meanprecacc_222.txt.gz
Total_Precipitation_Accumulation
2.49 2.64 2.50 2.39 2.10 2.22 2.48 2.57 2.32 2.52 2.51 2.47 2.39 2.36 2.35 2.07 1.91 1.87 1.92 2.08 2.04 2.00 2.19 2.26 2.15 2.10 2.05 1.87 1.69 1.45 1.27 1.17 1.05 0.92 0.82 0.77 0.71 0.62 0.56 0.44 0.38 0.31 0.28
2.21 2.28 2.19 2.19 2.07 2.10 2.27 2.27 2.25 2.54 2.66 2.59 2.25 2.08 2.06 2.07 2.00 1.87 2.02 2.13 2.16 1.97 2.08 2.38 2.50 2.46 2.49 2.32 2.06 1.81 1.56 1.37 1.13 0.94 0.84 0.81 0.74 0.69 0.72 0.72 0.73 0.44 0.32
1.97 2.05 2.06 2.01 2.04 1.96 1.98 1.97 2.03 2.24 2.26 2.22 2.04 1.88 1.89 1.94 2.00 1.99 1.92 2.00 2.08 2.13 2.12 2.27 2.48 2.54 2.72 2.74 2.58 2.22 1.91 1.61 1.30 0.99 0.82 0.78 0.74 0.65 0.64 0.70 0.73 0.53 0.38
1.72 1.83 1.74 1.72 1.71 1.65 1.65 1.84 1.90 2.06 2.22 2.26 2.21 1.97 2.00 2.08 1.94 2.02 2.03 1.99 2.26 2.10 2.37 2.51 2.49 2.45 2.75 3.06 3.17 2.95 2.50 1.95 1.54 1.23 0.99 0.86 0.81 0.73 0.66 0.63 0.62 0.58 0.46
1.59 1.68 1.71 1.73 1.47 1.51 1.56 1.50 1.79 1.96 2.21 2.24 1.89 1.91 1.79 1.81 1.83 1.71 1.94 1.85 2.02 2.17 2.39 2.44 2.54 2.45 2.75 3.37 3.85 3.97 3.47 2.70 2.08 1.72 1.54 1.36 1.18 0.95 0.79 0.75 0.68 0.64 0.59
1.59 1.60 1.52 1.46 1.31 1.47 1.66 1.78 2.15 2.08 2.01 2.00 1.66 1.87 1.70 1.49 1.58 1.69 1.69 1.81 1.89 1.74 2.02 2.35 2.60 2.18 2.51 3.16 3.65 4.03 4.15 3.77 3.04 2.41 2.12 1.92 1.73 1.34 0.95 0.82 0.78 0.73 0.67
1.61 1.67 1.59 1.68 1.43 1.46 1.51 1.52 1.72 1.83 1.74 1.74 2.07 2.18 1.79 1.46 1.50 1.52 1.52 1.78 1.86 1.84 2.13 2.52 2.65 2.59 2.26 2.19 2.35 2.93 3.71 4.16 3.95 3.30 2.82 2.44 2.20 1.78 1.30 1.02 0.88 0.81 0.77
1.52 1.46 1.68 1.58 1.49 1.59 1.54 1.52 1.68 1.79 1.72 1.77 1.98 2.22 2.00 2.00 1.77 1.32 1.55 1.67 1.73 1.96 2.08 2.19 2.49 2.75 2.43 2.49 1.84 1.93 2.72 3.42 4.06 4.06 3.48 2.80 2.46 2.17 1.77 1.44 1.17 0.99 0.92
1.35 1.48 1.52 1.59 1.64 1.38 1.55 1.63 1.57 1.62 1.70 1.65 1.66 1.97 2.03 2.06 1.82 1.43 1.39 1.45 1.64 1.92 1.99 2.11 1.99 2.20 2.39 2.68 2.47 1.90 2.04 2.33 3.20 4.06 4.01 3.30 2.68 2.22 1.99 1.85 1.66 1.39 1.21
1.34 1.31 1.38 1.61 1.69 1.46 1.64 1.30 1.39 1.61 1.70 1.57 1.58 1.52 1.55 1.72 1.86 1.82 1.56 1.43 1.52 1.64 1.74 1.84 1.98 2.13 2.24 2.51 2.58 1.88 1.45 1.61 2.31 3.33 3.93 3.73 3.14 2.51 2.19 2.24 2.47 2.40 1.96
1.64 1.39 1.40 1.59 1.71 1.64 1.65 1.52 1.74 1.54 1.44 1.43 1.48 1.54 1.57 1.52 1.42 1.67 1.77 1.68 1.58 1.39 1.41 1.52 1.64 1.74 1.81 2.10 2.39 1.79 1.37 1.44 1.68 2.25 2.80 3.17 3.16 2.93 2.71 2.78 3.26 3.60 3.41
1.68 1.60 1.58 1.77 1.77 1.71 1.70 1.63 1.67 1.58 1.55 1.55 1.46 1.42 1.66 1.65 1.52 1.65 1.56 1.56 1.54 1.25 1.23 1.34 1.40 1.47 1.60 1.82 1.78 1.60 1.62 1.70 1.61 1.62 1.75 2.03 2.39 2.64 2.86 3.07 3.37 3.81 4.02
1.49 1.60 1.69 1.88 1.79 1.74 1.66 1.69 1.68 1.68 1.72 1.75 1.62 1.44 1.43 1.52 1.55 1.55 1.54 1.37 1.35 1.26 1.30 1.24 1.25 1.41 1.54 1.95 2.03 1.80 1.72 1.87 1.64 1.46 1.38 1.40 1.57 1.84 2.12 2.43 2.88 3.35 3.76
1.43 1.57 1.67 1.62 1.60 1.61 1.51 1.68 1.58 1.54 1.60 1.65 1.57 1.79 1.69 1.46 1.56 1.59 1.67 1.81 1.73 1.62 1.60 1.55 1.59 1.72 1.89 2.05 2.21 1.99 1.70 1.60 1.37 1.27 1.23 1.21 1.27 1.37 1.53 1.67 1.89 2.21 2.48
1.39 1.43 1.41 1.42 1.47 1.49 1.59 1.73 1.65 1.59 1.65 1.55 1.55 1.87 1.78 1.51 1.49 1.55 1.63 1.86 2.14 1.95 1.79 1.84 1.96 2.07 2.07 2.07 2.10 1.92 1.73 1.59 1.35 1.20 1.15 1.10 1.10 1.11 1.16 1.22 1.30 1.45 1.60
1.38 1.43 1.41 1.42 1.43 1.37 1.44 1.61 1.54 1.61 1.69 1.67 1.69 1.75 1.75 1.65 1.63 1.67 1.73 1.85 2.08 2.09 1.92 1.86 2.11 2.19 2.05 1.88 2.07 2.01 1.80 1.68 1.39 1.20 1.08 1.06 1.07 1.09 1.10 1.10 1.10 1.16 1.22
1.42 1.45 1.48 1.51 1.48 1.44 1.48 1.56 1.48 1.59 1.67 1.77 1.77 1.71 1.70 1.86 1.89 1.76 1.81 1.85 2.03 2.22 2.16 2.04 2.18 2.19 2.08 1.88 1.86 1.85 1.77 1.71 1.50 1.42 1.24 1.15 1.10 1.08 1.07 1.09 1.14 1.15 1.13
1.53 1.52 1.55 1.61 1.52 1.53 1.58 1.49 1.49 1.57 1.65 1.69 1.77 1.93 1.93 1.98 1.94 1.84 1.91 1.93 2.07 2.32 2.33 2.21 2.18 2.18 2.11 2.02 1.92 1.75 1.56 1.51 1.50 1.61 1.43 1.28 1.21 1.18 1.13 1.07 1.04 1.01 0.99
1.62 1.59 1.53 1.54 1.60 1.68 1.66 1.51 1.46 1.45 1.41 1.39 1.53 1.80 2.06 2.31 2.20 2.04 1.97 1.95 2.02 2.13 2.33 2.21 2.14 2.28 2.24 2.12 1.98 1.73 1.55 1.49 1.30 1.37 1.41 1.30 1.16 1.07 1.01 0.97 0.95 0.92 0.87
1.53 1.60 1.62 1.59 1.57 1.57 1.53 1.51 1.53 1.49 1.43 1.34 1.38 1.49 1.63 1.86 2.05 2.19 2.03 1.89 1.94 2.07 2.23 2.26 2.33 2.58 2.64 2.47 2.18 1.90 1.76 1.63 1.46 1.25 1.27 1.22 1.13 1.03 1.00 0.96 0.93 0.91 0.90
1.60 1.74 1.79 1.74 1.68 1.64 1.53 1.62 1.72 1.59 1.58 1.50 1.47 1.45 1.36 1.47 1.64 1.80 1.80 1.98 2.05 2.04 2.17 2.27 2.48 2.91 2.94 2.68 2.22 1.97 1.89 1.84 1.65 1.42 1.30 1.13 1.02 0.93 0.94 0.99 0.97 0.92 0.87
2.03 2.06 1.96 1.89 1.83 1.65 1.75 1.75 1.73 1.72 1.77 1.73 1.67 1.61 1.48 1.39 1.42 1.50 1.56 1.70 1.88 1.95 2.03 2.16 2.35 2.65 2.77 2.64 2.36 2.11 1.90 1.78 1.64 1.48 1.38 1.30 1.14 1.06 0.96 0.89 0.98 0.96 0.93
2.15 2.19 2.24 2.17 2.08 2.11 2.06 1.76 1.70 1.69 1.77 1.80 1.86 1.88 1.58 1.34 1.45 1.42 1.51 1.53 1.51 1.61 1.72 1.87 2.08 2.27 2.59 2.69 2.56 2.17 1.99 1.83 1.59 1.47 1.42 1.35 1.27 1.14 1.00 0.94 1.00 0.88 0.88
2.08 2.06 2.02 1.94 1.92 1.90 1.87 1.62 1.52 1.43 1.55 1.61 1.61 1.62 1.60 1.47 1.37 1.39 1.40 1.33 1.27 1.27 1.34 1.39 1.52 1.79 2.11 2.49 2.68 2.45 2.27 2.06 1.81 1.58 1.36 1.31 1.27 1.15 1.01 0.92 0.98 0.86 0.76
1.97 1.87 1.78 1.74 1.72 1.75 1.74 1.56 1.44 1.32 1.36 1.38 1.37 1.40 1.44 1.36 1.35 1.23 1.17 1.18 1.15 1.10 1.08 1.11 1.16 1.33 1.60 1.93 2.29 2.44 2.18 1.85 1.68 1.48 1.34 1.22 1.13 1.16 1.14 0.99 0.95 0.97 0.81
2.06 1.98 1.89 1.86 1.83 1.87 1.95 1.71 1.55 1.42 1.47 1.49 1.55 1.53 1.46 1.32 1.28 1.12 1.03 1.07 1.02 0.95 0.99 0.97 0.93 0.97 1.09 1.37 1.76 1.92 2.01 1.80 1.56 1.42 1.15 1.08 1.04 1.05 1.10 0.95 0.79 0.78 0.77

GEFSMA_prec_meanprecacc_228.txt.gz
Total_Precipitation_Accumulation
2.61 2.75 2.59 2.48 2.17 2.28 2.53 2.62 2.36 2.55 2.53 2.49 2.41 2.38 2.38 2.11 1.94 1.90 1.94 2.11 2.07 2.03 2.22 2.29 2.17 2.12 2.08 1.89 1.72 1.47 1.28 1.18 1.07 0.93 0.84 0.78 0.73 0.63 0.57 0.46 0.40 0.32 0.29
2.27 2.34 2.23 2.22 2.10 2.15 2.31 2.30 2.28 2.58 2.69 2.61 2.27 2.10 2.09 2.10 2.03 1.91 2.05 2.16 2.19 2.00 2.12 2.42 2.54 2.49 2.52 2.34 2.09 1.84 1.58 1.40 1.16 0.96 0.86 0.82 0.76 0.70 0.74 0.73 0.75 0.46 0.33
2.01 2.08 2.09 2.04 2.08 1.98 2.01 2.00 2.07 2.27 2.28 2.25 2.07 1.91 1.93 1.97 2.03 2.02 1.96 2.04 2.11 2.16 2.14 2.31 2.52 2.58 2.76 2.77 2.62 2.26 1.94 1.65 1.33 1.02 0.84 0.80 0.76 0.66 0.66 0.72 0.74 0.54 0.39
1.76 1.86 1.77 1.75 1.74 1.67 1.67 1.87 1.94 2.10 2.25 2.29 2.26 2.02 2.05 2.11 1.97 2.05 2.07 2.03 2.29 2.13 2.39 2.54 2.53 2.50 2.82 3.12 3.23 3.02 2.55 1.99 1.57 1.27 1.02 0.89 0.83 0.75 0.67 0.66 0.64 0.61 0.48
1.64 1.72 1.74 1.77 1.51 1.54 1.58 1.53 1.82 1.99 2.25 2.29 1.94 1.97 1.85 1.86 1.87 1.74 1.98 1.90 2.08 2.22 2.44 2.49 2.58 2.48 2.80 3.45 3.94 4.05 3.53 2.75 2.12 1.77 1.57 1.38 1.20 0.97 0.82 0.79 0.72 0.67 0.61
1.63 1.65 1.56 1.50 1.35 1.50 1.69 1.82 2.20 2.13 2.05 2.04 1.70 1.92 1.76 1.54 1.62 1.73 1.73 1.85 1.94 1.80 2.09 2.41 2.64 2.21 2.55 3.22 3.73 4.14 4.26 3.86 3.11 2.47 2.17 1.96 1.76 1.37 0.97 0.85 0.81 0.75 0.69
1.64 1.71 1.64 1.73 1.47 1.50 1.56 1.57 1.76 1.88 1.79 1.79 2.13 2.24 1.85 1.53 1.57 1.58 1.59 1.84 1.91 1.91 2.23 2.62 2.75 2.67 2.32 2.26 2.42 3.02 3.81 4.26 4.06 3.40 2.90 2.51 2.24 1.82 1.34 1.06 0.91 0.84 0.80
1.54 1.49 1.72 1.63 1.54 1.64 1.60 1.60 1.74 1.84 1.78 1.83 2.05 2.30 2.07 2.07 1.85 1.39 1.63 1.77 1.81 2.04 2.15 2.28 2.58 2.85 2.52 2.56 1.91 2.01 2.82 3.51 4.15 4.15 3.55 2.87 2.53 2.23 1.81 1.47 1.20 1.02 0.95
1.39 1.53 1.56 1.64 1.70 1.42 1.60 1.69 1.63 1.68 1.75 1.70 1.73 2.05 2.09 2.11 1.87 1.48 1.44 1.51 1.70 2.00 2.08 2.20 2.08 2.30 2.48 2.76 2.55 1.98 2.12 2.40 3.26 4.14 4.09 3.39 2.74 2.27 2.05 1.90 1.70 1.43 1.25
1.39 1.35 1.42 1.65 1.74 1.50 1.68 1.35 1.44 1.67 1.76 1.63 1.65 1.58 1.60 1.77 1.91 1.86 1.60 1.48 1.58 1.74 1.87 1.96 2.10 2.29 2.42 2.68 2.68 1.96 1.51 1.66 2.36 3.40 4.02 3.82 3.21 2.57 2.26 2.31 2.54 2.46 2.00
1.71 1.41 1.43 1.63 1.75 1.68 1.69 1.56 1.77 1.59 1.50 1.49 1.55 1.60 1.62 1.57 1.48 1.72 1.81 1.72 1.64 1.47 1.51 1.62 1.72 1.84 1.92 2.22 2.46 1.85 1.44 1.52 1.75 2.33 2.89 3.26 3.24 3.00 2.77 2.85 3.35 3.68 3.49
1.74 1.64 1.62 1.81 1.81 1.75 1.75 1.67 1.71 1.63 1.61 1.60 1.52 1.48 1.72 1.71 1.58 1.70 1.60 1.60 1.59 1.30 1.29 1.40 1.46 1.53 1.65 1.89 1.85 1.68 1.72 1.81 1.72 1.72 1.84 2.11 2.47 2.71 2.92 3.11 3.42 3.88 4.11
1.52 1.64 1.73 1.92 1.83 1.77 1.71 1.74 1.73 1.74 1.78 1.80 1.67 1.50 1.49 1.57 1.59 1.60 1.60 1.42 1.39 1.30 1.34 1.29 1.30 1.47 1.60 2.02 2.12 1.90 1.83 1.97 1.71 1.52 1.44 1.45 1.61 1.89 2.17 2.48 2.92 3.40 3.82
1.45 1.60 1.70 1.66 1.64 1.64 1.56 1.73 1.64 1.60 1.65 1.69 1.61 1.84 1.75 1.50 1.60 1.63 1.72 1.87 1.77 1.64 1.63 1.59 1.64 1.79 1.97 2.13 2.29 2.07 1.76 1.65 1.42 1.33 1.29 1.26 1.31 1.40 1.56 1.72 1.94 2.25 2.52
1.41 1.45 1.43 1.45 1.50 1.53 1.63 1.78 1.70 1.64 1.70 1.59 1.60 1.94 1.84 1.56 1.53 1.59 1.68 1.91 2.19 1.98 1.82 1.87 2.00 2.12 2.14 2.14 2.17 1.98 1.78 1.65 1.42 1.27 1.21 1.16 1.15 1.16 1.19 1.24 1.33 1.49 1.63
1.40 1.45 1.43 1.45 1.45 1.40 1.48 1.66 1.59 1.66 1.74 1.71 1.73 1.80 1.80 1.69 1.68 1.73 1.79 1.92 2.15 2.15 1.96 1.89 2.13 2.23 2.12 1.95 2.13 2.06 1.85 1.74 1.45 1.25 1.13 1.11 1.12 1.13 1.14 1.13 1.12 1.18 1.25
1.45 1.48 1.50 1.55 1.51 1.48 1.52 1.61 1.52 1.64 1.71 1.82 1.81 1.76 1.76 1.92 1.95 1.82 1.86 1.91 2.09 2.29 2.21 2.08 2.22 2.23 2.11 1.92 1.90 1.90 1.82 1.75 1.54 1.45 1.26 1.18 1.13 1.11 1.10 1.13 1.18 1.20 1.18
1.56 1.56 1.59 1.68 1.60 1.63 1.67 1.56 1.55 1.63 1.70 1.73 1.82 1.99 1.99 2.03 1.98 1.88 1.95 1.98 2.11 2.37 2.37 2.25 2.22 2.22 2.14 2.06 1.95 1.78 1.58 1.54 1.52 1.64 1.45 1.29 1.22 1.19 1.15 1.10 1.07 1.04 1.02
1.66 1.64 1.59 1.61 1.69 1.79 1.79 1.61 1.55 1.53 1.47 1.45 1.58 1.85 2.10 2.36 2.24 2.09 2.04 2.01 2.07 2.19 2.37 2.24 2.16 2.33 2.28 2.17 2.02 1.76 1.57 1.51 1.33 1.40 1.42 1.31 1.17 1.07 1.02 0.99 0.96 0.94 0.89
1.57 1.65 1.69 1.67 1.67 1.67 1.64 1.62 1.65 1.62 1.53 1.42 1.45 1.55 1.68 1.91 2.12 2.26 2.10 1.94 1.99 2.12 2.27 2.30 2.36 2.62 2.68 2.53 2.24 1.93 1.78 1.65 1.49 1.26 1.28 1.22 1.14 1.04 1.00 0.96 0.93 0.92 0.91
1.65 1.80 1.87 1.86 1.82 1.76 1.62 1.73 1.84 1.70 1.67 1.58 1.55 1.52 1.42 1.53 1.69 1.85 1.84 2.03 2.10 2.09 2.21 2.31 2.52 2.95 2.97 2.72 2.27 2.01 1.91 1.87 1.68 1.43 1.31 1.14 1.03 0.94 0.95 1.00 0.98 0.93 0.87
2.11 2.15 2.06 2.03 1.97 1.75 1.86 1.86 1.83 1.80 1.85 1.80 1.73 1.66 1.52 1.43 1.45 1.53 1.59 1.73 1.92 1.98 2.06 2.20 2.39 2.68 2.80 2.67 2.40 2.15 1.93 1.82 1.68 1.50 1.39 1.31 1.16 1.07 0.97 0.90 0.99 0.98 0.96
2.27 2.30 2.35 2.28 2.17 2.19 2.15 1.85 1.78 1.76 1.83 1.85 1.92 1.94 1.62 1.37 1.48 1.45 1.53 1.55 1.53 1.63 1.75 1.91 2.11 2.29 2.62 2.72 2.60 2.21 2.04 1.87 1.62 1.50 1.45 1.37 1.29 1.15 1.01 0.96 1.02 0.91 0.90
2.23 2.17 2.11 2.02 1.99 1.97 1.95 1.69 1.58 1.48 1.58 1.64 1.65 1.67 1.66 1.52 1.42 1.44 1.45 1.37 1.29 1.30 1.37 1.42 1.54 1.81 2.14 2.53 2.74 2.50 2.33 2.12 1.85 1.62 1.40 1.35 1.30 1.19 1.04 0.95 1.01 0.89 0.80
2.07 1.96 1.88 1.85 1.82 1.83 1.83 1.64 1.52 1.38 1.40 1.41 1.42 1.45 1.49 1.42 1.41 1.31 1.23 1.22 1.19 1.13 1.13 1.15 1.18 1.35 1.63 1.97 2.36 2.52 2.26 1.92 1.73 1.53 1.40 1.30 1.20 1.23 1.17 1.01 0.97 1.00 0.84
2.14 2.05 1.97 1.97 1.94 1.96 2.03 1.78 1.63 1.50 1.53 1.53 1.60 1.58 1.52 1.38 1.33 1.17 1.08 1.11 1.06 0.99 1.02 0.99 0.95 0.99 1.11 1.40 1.82 1.99 2.08 1.86 1.62 1.48 1.22 1.17 1.12 1.14 1.16 0.98 0.82 0.81 0.80

GEFSMA_prec_meanprecacc_234.txt.gz
Total_Precipitation_Accumulation
2.67 2.82 2.71 2.59 2.23 2.33 2.57 2.64 2.37 2.56 2.53 2.51 2.42 2.39 2.39 2.12 1.95 1.90 1.94 2.13 2.10 2.07 2.27 2.35 2.23 2.17 2.12 1.93 1.74 1.51 1.31 1.21 1.10 0.97 0.88 0.82 0.77 0.68 0.62 0.49 0.43 0.35 0.31
2.33 2.40 2.31 2.28 2.14 2.19 2.34 2.32 2.29 2.59 2.70 2.63 2.29 2.12 2.11 2.12 2.04 1.92 2.06 2.18 2.22 2.04 2.16 2.47 2.62 2.56 2.57 2.39 2.14 1.89 1.64 1.45 1.20 1.00 0.90 0.86 0.80 0.75 0.78 0.77 0.78 0.49 0.35
2.04 2.11 2.13 2.07 2.10 2.00 2.03 2.02 2.08 2.29 2.30 2.27 2.10 1.94 1.94 1.98 2.05 2.05 1.97 2.05 2.13 2.19 2.18 2.34 2.58 2.65 2.82 2.83 2.69 2.33 2.02 1.70 1.37 1.05 0.87 0.83 0.79 0.70 0.69 0.76 0.78 0.58 0.43
1.79 1.89 1.80 1.78 1.77 1.69 1.69 1.90 1.97 2.13 2.27 2.31 2.28 2.04 2.07 2.12 1.98 2.07 2.09 2.05 2.32 2.16 2.42 2.58 2.58 2.55 2.89 3.20 3.31 3.10 2.63 2.04 1.61 1.31 1.06 0.92 0.87 0.78 0.71 0.70 0.69 0.66 0.53
1.66 1.74 1.76 1.79 1.53 1.56 1.60 1.55 1.85 2.02 2.28 2.32 1.97 1.99 1.86 1.87 1.88 1.75 1.99 1.91 2.11 2.25 2.47 2.53 2.63 2.53 2.86 3.53 4.03 4.16 3.65 2.84 2.19 1.84 1.63 1.43 1.25 1.00 0.86 0.83 0.79 0.73 0.67
1.66 1.68 1.58 1.52 1.37 1.52 1.72 1.83 2.22 2.15 2.08 2.08 1.73 1.95 1.79 1.56 1.64 1.75 1.75 1.86 1.98 1.85 2.14 2.47 2.68 2.25 2.61 3.31 3.82 4.25 4.40 3.99 3.23 2.58 2.26 2.04 1.83 1.42 1.01 0.90 0.89 0.83 0.74
1.68 1.74 1.66 1.75 1.49 1.53 1.59 1.59 1.80 1.92 1.83 1.83 2.16 2.26 1.88 1.55 1.60 1.60 1.61 1.86 1.93 1.95 2.28 2.68 2.80 2.71 2.36 2.30 2.47 3.10 3.93 4.41 4.21 3.53 3.01 2.61 2.33 1.87 1.37 1.10 0.96 0.89 0.84
1.59 1.53 1.74 1.65 1.57 1.68 1.66 1.65 1.79 1.89 1.83 1.87 2.09 2.35 2.10 2.10 1.88 1.41 1.65 1.79 1.83 2.05 2.18 2.32 2.63 2.89 2.56 2.59 1.94 2.04 2.89 3.62 4.27 4.27 3.66 2.97 2.63 2.31 1.87 1.53 1.26 1.07 0.99
1.45 1.56 1.59 1.67 1.74 1.47 1.67 1.78 1.71 1.75 1.80 1.75 1.78 2.11 2.14 2.13 1.89 1.50 1.46 1.53 1.73 2.03 2.11 2.24 2.12 2.34 2.52 2.80 2.59 2.01 2.16 2.46 3.35 4.25 4.21 3.50 2.84 2.36 2.14 2.00 1.79 1.50 1.30
1.45 1.40 1.46 1.70 1.81 1.58 1.76 1.44 1.53 1.75 1.83 1.69 1.71 1.63 1.65 1.81 1.94 1.89 1.62 1.49 1.60 1.76 1.90 2.00 2.15 2.34 2.46 2.71 2.70 2.00 1.56 1.70 2.42 3.49 4.14 3.94 3.32 2.67 2.35 2.39 2.64 2.55 2.07
1.78 1.48 1.48 1.69 1.82 1.76 1.79 1.67 1.87 1.68 1.57 1.55 1.60 1.65 1.67 1.62 1.52 1.77 1.85 1.74 1.65 1.49 1.54 1.65 1.77 1.90 1.97 2.27 2.52 1.90 1.49 1.57 1.81 2.39 2.97 3.36 3.34 3.09 2.84 2.92 3.44 3.79 3.58
1.79 1.68 1.67 1.87 1.87 1.81 1.84 1.77 1.80 1.71 1.68 1.68 1.60 1.56 1.79 1.78 1.64 1.75 1.64 1.63 1.61 1.32 1.31 1.42 1.50 1.57 1.69 1.93 1.90 1.72 1.75 1.86 1.79 1.79 1.91 2.19 2.56 2.80 3.00 3.18 3.50 3.97 4.20
1.57 1.67 1.76 1.96 1.87 1.81 1.77 1.82 1.81 1.79 1.83 1.87 1.76 1.61 1.60 1.66 1.67 1.66 1.64 1.46 1.42 1.32 1.36 1.31 1.33 1.50 1.62 2.03 2.15 1.93 1.86 2.01 1.77 1.57 1.50 1.52 1.68 1.96 2.24 2.55 3.01 3.49 3.90
1.50 1.64 1.73 1.68 1.66 1.68 1.60 1.80 1.71 1.68 1.72 1.77 1.68 1.92 1.83 1.58 1.68 1.69 1.77 1.91 1.79 1.66 1.64 1.60 1.66 1.81 1.99 2.15 2.32 2.10 1.79 1.70 1.46 1.38 1.34 1.32 1.37 1.45 1.61 1.78 2.02 2.33 2.59
1.44 1.48 1.46 1.48 1.52 1.56 1.67 1.83 1.76 1.71 1.79 1.66 1.65 1.99 1.89 1.62 1.60 1.66 1.73 1.95 2.22 2.00 1.83 1.88 2.02 2.14 2.17 2.16 2.20 2.01 1.81 1.69 1.46 1.32 1.27 1.22 1.21 1.22 1.25 1.29 1.38 1.55 1.69
1.43 1.48 1.46 1.48 1.50 1.44 1.53 1.71 1.63 1.71 1.79 1.75 1.77 1.85 1.85 1.74 1.73 1.79 1.85 1.96 2.19 2.19 1.98 1.91 2.15 2.25 2.14 1.98 2.16 2.09 1.88 1.77 1.47 1.28 1.15 1.13 1.15 1.18 1.21 1.21 1.18 1.23 1.31
1.47 1.51 1.54 1.61 1.58 1.54 1.59 1.67 1.58 1.69 1.75 1.84 1.85 1.80 1.80 1.97 1.99 1.86 1.91 1.95 2.13 2.32 2.23 2.09 2.24 2.25 2.13 1.94 1.94 1.93 1.84 1.77 1.56 1.47 1.28 1.19 1.14 1.12 1.13 1.17 1.22 1.24 1.23
1.62 1.61 1.64 1.73 1.66 1.69 1.74 1.63 1.61 1.68 1.74 1.76 1.87 2.03 2.02 2.06 2.00 1.92 2.00 2.02 2.15 2.40 2.40 2.26 2.23 2.24 2.16 2.09 1.97 1.80 1.60 1.55 1.54 1.66 1.47 1.31 1.23 1.20 1.16 1.11 1.09 1.06 1.03
1.72 1.69 1.63 1.65 1.73 1.85 1.87 1.69 1.61 1.58 1.52 1.49 1.63 1.88 2.13 2.40 2.27 2.13 2.07 2.04 2.10 2.22 2.40 2.26 2.18 2.35 2.30 2.19 2.04 1.77 1.58 1.52 1.34 1.42 1.45 1.33 1.18 1.08 1.03 0.99 0.97 0.95 0.90
1.63 1.69 1.72 1.71 1.70 1.72 1.71 1.69 1.72 1.68 1.58 1.46 1.49 1.58 1.71 1.95 2.15 2.31 2.14 1.98 2.04 2.16 2.31 2.33 2.39 2.64 2.70 2.55 2.25 1.94 1.79 1.67 1.50 1.28 1.30 1.24 1.15 1.06 1.02 0.97 0.94 0.93 0.92
1.71 1.85 1.91 1.90 1.87 1.81 1.66 1.77 1.89 1.76 1.73 1.61 1.57 1.54 1.44 1.57 1.74 1.91 1.89 2.07 2.14 2.14 2.26 2.35 2.56 2.98 2.99 2.73 2.28 2.03 1.93 1.89 1.69 1.44 1.32 1.15 1.04 0.95 0.96 1.01 0.99 0.94 0.89
2.17 2.21 2.13 2.08 2.02 1.80 1.91 1.92 1.89 1.87 1.91 1.85 1.77 1.70 1.56 1.47 1.50 1.58 1.64 1.79 1.98 2.03 2.11 2.25 2.43 2.71 2.82 2.69 2.42 2.17 1.96 1.84 1.69 1.51 1.40 1.32 1.18 1.09 1.00 0.92 1.01 1.00 0.97
2.34 2.36 2.40 2.33 2.21 2.23 2.20 1.91 1.85 1.82 1.88 1.89 1.96 1.98 1.67 1.41 1.54 1.50 1.58 1.60 1.57 1.67 1.79 1.94 2.14 2.31 2.63 2.74 2.63 2.23 2.05 1.89 1.64 1.52 1.48 1.39 1.31 1.16 1.02 0.98 1.05 0.93 0.93
2.31 2.26 2.18 2.08 2.04 2.02 2.01 1.76 1.66 1.55 1.64 1.69 1.69 1.70 1.69 1.55 1.47 1.48 1.48 1.39 1.31 1.32 1.40 1.45 1.56 1.83 2.16 2.57 2.78 2.53 2.36 2.15 1.87 1.65 1.43 1.37 1.32 1.20 1.06 0.97 1.04 0.93 0.83
2.15 2.03 1.94 1.92 1.90 1.92 1.93 1.73 1.63 1.48 1.47 1.46 1.46 1.48 1.54 1.46 1.48 1.38 1.28 1.26 1.21 1.15 1.16 1.19 1.21 1.38 1.67 2.01 2.41 2.56 2.29 1.95 1.75 1.55 1.44 1.33 1.23 1.26 1.21 1.05 1.01 1.05 0.88
2.22 2.14 2.06 2.05 2.03 2.05 2.14 1.90 1.75 1.62 1.62 1.61 1.66 1.64 1.60 1.47 1.44 1.29 1.17 1.17 1.10 1.02 1.06 1.03 0.99 1.02 1.15 1.44 1.86 2.03 2.11 1.90 1.65 1.51 1.25 1.21 1.16 1.19 1.21 1.04 0.88 0.87 0.84

GEFSMA_prec_meanprecacc_240.txt.gz
Total_Precipitation_Accumulation
2.78 2.94 2.84 2.81 2.48 2.53 2.71 2.75 2.44 2.61 2.57 2.53 2.45 2.41 2.42 2.14 1.96 1.91 1.95 2.14 2.11 2.09 2.30 2.38 2.27 2.21 2.16 1.96 1.78 1.55 1.35 1.25 1.12 1.00 0.92 0.86 0.81 0.72 0.66 0.54 0.47 0.39 0.35
2.42 2.48 2.42 2.48 2.32 2.36 2.44 2.39 2.34 2.63 2.74 2.66 2.32 2.14 2.13 2.14 2.05 1.93 2.07 2.20 2.24 2.05 2.19 2.52 2.69 2.64 2.63 2.44 2.19 1.93 1.68 1.49 1.23 1.02 0.93 0.90 0.83 0.79 0.81 0.80 0.82 0.54 0.41
2.13 2.20 2.24 2.22 2.24 2.15 2.13 2.07 2.12 2.33 2.33 2.30 2.14 1.97 1.98 2.02 2.07 2.06 1.99 2.08 2.16 2.21 2.20 2.38 2.62 2.70 2.87 2.89 2.74 2.38 2.07 1.76 1.42 1.10 0.91 0.86 0.82 0.73 0.72 0.78 0.82 0.62 0.47
1.87 1.98 1.90 1.88 1.86 1.78 1.76 1.95 2.01 2.16 2.31 2.36 2.34 2.08 2.12 2.17 2.02 2.10 2.12 2.08 2.37 2.20 2.45 2.60 2.61 2.59 2.93 3.25 3.37 3.19 2.71 2.11 1.67 1.37 1.12 0.97 0.90 0.82 0.74 0.73 0.72 0.69 0.56
1.71 1.82 1.85 1.89 1.60 1.60 1.64 1.58 1.90 2.06 2.33 2.39 2.02 2.05 1.92 1.91 1.93 1.79 2.02 1.94 2.14 2.28 2.50 2.55 2.65 2.56 2.90 3.58 4.10 4.26 3.74 2.92 2.27 1.92 1.70 1.49 1.30 1.06 0.91 0.88 0.83 0.78 0.71
1.70 1.73 1.65 1.60 1.41 1.55 1.75 1.87 2.28 2.21 2.15 2.17 1.80 2.00 1.84 1.59 1.68 1.78 1.77 1.89 2.01 1.87 2.15 2.48 2.71 2.28 2.64 3.35 3.87 4.32 4.49 4.08 3.32 2.66 2.32 2.10 1.89 1.47 1.05 0.94 0.94 0.91 0.82
1.72 1.80 1.71 1.82 1.54 1.57 1.63 1.63 1.86 2.00 1.91 1.91 2.25 2.34 1.93 1.57 1.62 1.63 1.64 1.89 1.96 1.97 2.30 2.71 2.85 2.75 2.39 2.33 2.50 3.13 3.98 4.48 4.31 3.61 3.09 2.68 2.40 1.93 1.42 1.14 1.01 0.98 0.96
1.63 1.58 1.80 1.71 1.63 1.74 1.72 1.72 1.88 2.00 1.93 1.97 2.19 2.45 2.18 2.16 1.91 1.43 1.68 1.81 1.85 2.07 2.19 2.34 2.66 2.92 2.60 2.64 1.98 2.06 2.92 3.66 4.36 4.38 3.75 3.04 2.71 2.40 1.95 1.59 1.34 1.16 1.07
1.50 1.61 1.64 1.74 1.81 1.54 1.73 1.86 1.82 1.89 1.94 1.87 1.88 2.21 2.22 2.20 1.95 1.53 1.48 1.55 1.75 2.06 2.13 2.26 2.13 2.36 2.54 2.85 2.65 2.04 2.17 2.48 3.39 4.32 4.30 3.57 2.90 2.42 2.19 2.06 1.88 1.60 1.37
1.51 1.44 1.51 1.76 1.88 1.64 1.83 1.50 1.61 1.86 1.97 1.81 1.82 1.74 1.72 1.86 2.00 1.94 1.67 1.53 1.63 1.81 1.94 2.03 2.18 2.37 2.48 2.74 2.75 2.03 1.57 1.71 2.44 3.52 4.19 4.00 3.39 2.73 2.41 2.48 2.74 2.67 2.19
1.84 1.52 1.53 1.75 1.89 1.83 1.87 1.74 1.95 1.79 1.71 1.68 1.71 1.75 1.75 1.69 1.60 1.84 1.94 1.82 1.71 1.53 1.56 1.68 1.79 1.92 1.99 2.32 2.57 1.93 1.50 1.58 1.82 2.41 2.99 3.38 3.38 3.14 2.90 3.00 3.54 3.90 3.70
1.86 1.73 1.72 1.92 1.92 1.87 1.91 1.86 1.89 1.79 1.76 1.77 1.69 1.64 1.88 1.88 1.75 1.87 1.75 1.74 1.70 1.37 1.34 1.45 1.52 1.60 1.72 1.97 1.92 1.73 1.77 1.88 1.80 1.80 1.92 2.19 2.57 2.83 3.04 3.24 3.57 4.04 4.29
1.64 1.73 1.82 2.01 1.91 1.87 1.82 1.89 1.88 1.85 1.90 1.95 1.86 1.70 1.70 1.78 1.81 1.80 1.78 1.56 1.48 1.36 1.39 1.34 1.35 1.53 1.64 2.06 2.18 1.94 1.87 2.03 1.79 1.60 1.51 1.54 1.69 1.97 2.28 2.60 3.07 3.56 3.97
1.56 1.71 1.80 1.74 1.72 1.75 1.65 1.86 1.78 1.74 1.81 1.86 1.78 2.04 1.95 1.69 1.79 1.79 1.86 2.00 1.85 1.71 1.69 1.64 1.68 1.83 2.00 2.17 2.35 2.12 1.81 1.72 1.50 1.40 1.36 1.33 1.39 1.47 1.64 1.81 2.06 2.40 2.66
1.52 1.55 1.53 1.55 1.59 1.63 1.74 1.90 1.81 1.78 1.88 1.78 1.76 2.11 2.00 1.71 1.69 1.73 1.80 2.03 2.30 2.07 1.90 1.93 2.06 2.16 2.19 2.19 2.23 2.03 1.84 1.71 1.48 1.34 1.28 1.23 1.23 1.24 1.27 1.31 1.41 1.58 1.74
1.50 1.55 1.53 1.55 1.57 1.51 1.59 1.77 1.69 1.79 1.87 1.84 1.85 1.93 1.94 1.82 1.82 1.86 1.92 2.04 2.27 2.26 2.05 1.97 2.21 2.29 2.17 2.00 2.19 2.11 1.90 1.78 1.49 1.29 1.16 1.14 1.16 1.19 1.22 1.23 1.21 1.27 1.35
1.52 1.56 1.59 1.67 1.63 1.59 1.64 1.73 1.63 1.76 1.82 1.92 1.91 1.87 1.88 2.05 2.07 1.92 1.97 2.02 2.20 2.39 2.29 2.15 2.29 2.29 2.16 1.97 1.96 1.95 1.87 1.79 1.57 1.49 1.29 1.20 1.15 1.13 1.13 1.17 1.24 1.27 1.26
1.64 1.63 1.67 1.77 1.70 1.72 1.79 1.69 1.66 1.73 1.80 1.83 1.96 2.12 2.09 2.13 2.06 1.97 2.06 2.09 2.22 2.47 2.46 2.32 2.28 2.29 2.20 2.12 2.00 1.82 1.61 1.56 1.55 1.67 1.48 1.32 1.24 1.21 1.16 1.12 1.09 1.08 1.05
1.74 1.72 1.66 1.68 1.76 1.89 1.93 1.75 1.68 1.65 1.59 1.57 1.73 1.97 2.22 2.50 2.34 2.20 2.14 2.11 2.17 2.28 2.47 2.33 2.23 2.40 2.34 2.23 2.06 1.79 1.60 1.54 1.35 1.43 1.46 1.34 1.19 1.09 1.04 1.00 0.98 0.96 0.91
1.66 1.73 1.76 1.75 1.75 1.77 1.76 1.76 1.79 1.75 1.67 1.55 1.58 1.68 1.79 2.04 2.24 2.39 2.21 2.05 2.10 2.23 2.38 2.38 2.44 2.68 2.74 2.59 2.28 1.96 1.81 1.68 1.51 1.28 1.31 1.25 1.16 1.07 1.03 0.98 0.95 0.93 0.93
1.73 1.89 1.95 1.93 1.91 1.86 1.71 1.83 1.95 1.82 1.80 1.68 1.64 1.61 1.50 1.63 1.81 1.99 1.96 2.16 2.23 2.21 2.32 2.41 2.62 3.03 3.04 2.79 2.32 2.06 1.96 1.91 1.71 1.45 1.34 1.17 1.05 0.96 0.97 1.02 1.00 0.95 0.90
2.21 2.25 2.17 2.13 2.07 1.84 1.95 1.96 1.94 1.92 1.97 1.90 1.82 1.75 1.61 1.52 1.55 1.65 1.72 1.87 2.07 2.12 2.19 2.33 2.50 2.78 2.89 2.77 2.50 2.24 2.02 1.89 1.73 1.55 1.44 1.36 1.21 1.12 1.01 0.93 1.03 1.01 0.99
2.40 2.41 2.45 2.37 2.26 2.28 2.25 1.94 1.88 1.86 1.92 1.93 2.01 2.02 1.70 1.44 1.58 1.55 1.64 1.67 1.64 1.74 1.88 2.04 2.22 2.38 2.69 2.81 2.72 2.34 2.16 1.99 1.72 1.60 1.55 1.45 1.35 1.20 1.04 0.99 1.06 0.94 0.94
2.37 2.32 2.24 2.13 2.08 2.06 2.05 1.79 1.69 1.58 1.68 1.73 1.73 1.74 1.72 1.58 1.51 1.53 1.53 1.44 1.35 1.36 1.45 1.51 1.61 1.88 2.23 2.65 2.86 2.62 2.46 2.25 1.96 1.71 1.49 1.42 1.37 1.24 1.08 0.99 1.07 0.95 0.85
2.20 2.08 1.98 1.96 1.94 1.95 1.95 1.76 1.65 1.50 1.50 1.50 1.50 1.52 1.57 1.49 1.51 1.43 1.33 1.31 1.27 1.21 1.22 1.26 1.26 1.42 1.72 2.07 2.47 2.62 2.34 2.01 1.81 1.59 1.48 1.38 1.28 1.32 1.26 1.10 1.06 1.09 0.92
2.26 2.17 2.09 2.08 2.06 2.08 2.17 1.93 1.79 1.65 1.66 1.65 1.71 1.68 1.64 1.51 1.47 1.33 1.21 1.21 1.14 1.07 1.13 1.11 1.05 1.07 1.19 1.48 1.91 2.08 2.16 1.94 1.70 1.55 1.30 1.26 1.21 1.25 1.27 1.09 0.94 0.92 0.88

GEFSMA_prec_meanprecacc_246.txt.gz
Total_Precipitation_Accumulation
2.92 3.09 2.97 2.96 2.63 2.64 2.85 2.92 2.61 2.75 2.65 2.60 2.49 2.43 2.44 2.16 1.97 1.93 1.99 2.16 2.12 2.10 2.30 2.38 2.28 2.24 2.20 2.00 1.81 1.57 1.38 1.27 1.15 1.02 0.94 0.91 0.86 0.77 0.70 0.57 0.50 0.42 0.40
2.51 2.59 2.53 2.61 2.44 2.46 2.54 2.52 2.48 2.76 2.82 2.72 2.36 2.16 2.15 2.16 2.06 1.95 2.13 2.24 2.25 2.06 2.19 2.52 2.69 2.65 2.66 2.47 2.21 1.95 1.70 1.51 1.26 1.05 0.96 0.93 0.87 0.82 0.85 0.84 0.85 0.57 0.44
2.20 2.29 2.32 2.30 2.34 2.26 2.24 2.18 2.23 2.44 2.41 2.36 2.18 2.01 2.03 2.06 2.10 2.09 2.06 2.17 2.20 2.23 2.21 2.38 2.63 2.72 2.90 2.92 2.77 2.40 2.09 1.79 1.45 1.14 0.95 0.89 0.84 0.75 0.76 0.82 0.85 0.65 0.51
1.94 2.08 2.00 1.99 2.00 1.94 1.92 2.07 2.10 2.24 2.36 2.41 2.40 2.13 2.17 2.21 2.06 2.15 2.16 2.15 2.44 2.23 2.47 2.61 2.62 2.60 2.96 3.27 3.39 3.22 2.74 2.14 1.70 1.40 1.15 1.00 0.93 0.84 0.76 0.76 0.75 0.72 0.59
1.81 1.93 2.00 2.05 1.76 1.78 1.83 1.72 2.01 2.15 2.39 2.44 2.05 2.11 1.97 1.96 1.97 1.83 2.07 1.99 2.19 2.32 2.54 2.59 2.66 2.57 2.93 3.61 4.13 4.29 3.79 2.97 2.31 1.95 1.73 1.52 1.33 1.08 0.93 0.90 0.85 0.80 0.73
1.80 1.86 1.78 1.72 1.53 1.69 1.90 2.00 2.40 2.31 2.21 2.22 1.83 2.06 1.89 1.63 1.72 1.82 1.81 1.94 2.04 1.90 2.19 2.53 2.76 2.32 2.67 3.39 3.91 4.36 4.54 4.13 3.36 2.70 2.36 2.13 1.93 1.51 1.09 0.98 0.98 0.93 0.84
1.81 1.89 1.80 1.92 1.65 1.69 1.75 1.72 1.96 2.08 1.98 1.97 2.32 2.43 2.01 1.62 1.67 1.68 1.68 1.92 1.98 1.99 2.33 2.76 2.90 2.80 2.44 2.36 2.53 3.17 4.03 4.55 4.38 3.68 3.15 2.72 2.45 1.98 1.46 1.18 1.04 1.01 0.99
1.70 1.63 1.88 1.78 1.70 1.85 1.84 1.82 1.97 2.07 2.00 2.05 2.28 2.58 2.32 2.28 1.99 1.48 1.71 1.84 1.87 2.10 2.21 2.36 2.69 2.97 2.65 2.71 2.02 2.09 2.96 3.70 4.41 4.44 3.82 3.09 2.76 2.44 1.99 1.64 1.38 1.20 1.11
1.57 1.67 1.69 1.80 1.87 1.60 1.82 1.94 1.90 1.97 2.04 1.97 1.99 2.33 2.35 2.34 2.06 1.59 1.53 1.60 1.79 2.10 2.17 2.30 2.17 2.40 2.59 2.93 2.71 2.08 2.20 2.50 3.43 4.36 4.35 3.62 2.94 2.45 2.22 2.09 1.92 1.64 1.41
1.56 1.48 1.56 1.81 1.92 1.69 1.90 1.55 1.66 1.93 2.05 1.91 1.94 1.83 1.81 1.98 2.13 2.07 1.77 1.60 1.70 1.87 2.02 2.11 2.24 2.42 2.53 2.82 2.82 2.08 1.60 1.73 2.46 3.54 4.22 4.02 3.41 2.76 2.44 2.50 2.77 2.71 2.24
1.91 1.57 1.57 1.79 1.93 1.88 1.93 1.80 2.02 1.85 1.77 1.75 1.80 1.84 1.86 1.81 1.69 1.97 2.09 1.94 1.79 1.58 1.62 1.74 1.86 1.97 2.04 2.38 2.65 1.97 1.54 1.60 1.84 2.42 3.00 3.39 3.39 3.16 2.93 3.02 3.56 3.94 3.76
1.96 1.83 1.79 1.99 1.98 1.93 1.98 1.92 1.96 1.84 1.82 1.83 1.76 1.72 1.98 1.99 1.85 1.99 1.89 1.87 1.81 1.42 1.37 1.48 1.55 1.64 1.77 2.02 1.95 1.76 1.79 1.90 1.81 1.82 1.93 2.20 2.58 2.84 3.06 3.26 3.60 4.08 4.34
1.73 1.84 1.93 2.12 2.02 1.97 1.90 1.96 1.95 1.92 1.95 2.01 1.93 1.77 1.78 1.85 1.90 1.91 1.90 1.68 1.58 1.43 1.46 1.38 1.38 1.55 1.67 2.10 2.21 1.99 1.90 2.05 1.79 1.61 1.53 1.55 1.70 1.98 2.29 2.62 3.09 3.59 4.01
1.64 1.79 1.89 1.83 1.82 1.84 1.72 1.94 1.85 1.81 1.88 1.92 1.84 2.12 2.03 1.75 1.85 1.86 1.95 2.10 1.95 1.78 1.77 1.71 1.71 1.86 2.03 2.20 2.38 2.17 1.84 1.75 1.52 1.42 1.38 1.35 1.40 1.48 1.65 1.82 2.08 2.41 2.68
1.61 1.63 1.61 1.65 1.69 1.72 1.82 1.99 1.89 1.87 2.00 1.86 1.83 2.20 2.07 1.77 1.75 1.78 1.86 2.11 2.40 2.17 1.98 2.00 2.11 2.19 2.23 2.23 2.26 2.06 1.87 1.75 1.52 1.36 1.30 1.24 1.24 1.26 1.29 1.33 1.42 1.60 1.76
1.57 1.66 1.62 1.64 1.66 1.62 1.69 1.88 1.79 1.90 2.00 1.95 1.95 2.05 2.04 1.88 1.89 1.91 1.98 2.12 2.38 2.38 2.15 2.03 2.25 2.31 2.20 2.03 2.22 2.15 1.93 1.82 1.52 1.31 1.18 1.15 1.17 1.20 1.23 1.25 1.24 1.30 1.39
1.58 1.64 1.70 1.77 1.72 1.69 1.76 1.85 1.75 1.89 1.93 2.04 2.02 1.98 1.98 2.16 2.16 1.98 2.04 2.09 2.29 2.50 2.38 2.21 2.33 2.32 2.20 2.00 2.00 2.00 1.91 1.84 1.61 1.52 1.31 1.21 1.16 1.14 1.15 1.19 1.26 1.29 1.29
1.68 1.70 1.75 1.87 1.81 1.84 1.90 1.80 1.77 1.86 1.92 1.95 2.07 2.25 2.20 2.25 2.18 2.06 2.15 2.19 2.29 2.55 2.53 2.38 2.33 2.33 2.24 2.17 2.06 1.89 1.67 1.60 1.60 1.72 1.51 1.34 1.26 1.22 1.18 1.13 1.11 1.09 1.06
1.78 1.76 1.71 1.76 1.87 2.02 2.04 1.86 1.78 1.77 1.72 1.68 1.84 2.09 2.34 2.64 2.48 2.31 2.23 2.19 2.25 2.35 2.55 2.40 2.29 2.46 2.39 2.30 2.17 1.88 1.66 1.60 1.39 1.48 1.51 1.37 1.21 1.11 1.05 1.01 0.99 0.96 0.91
1.69 1.77 1.81 1.80 1.82 1.87 1.87 1.86 1.88 1.85 1.77 1.66 1.69 1.78 1.91 2.17 2.38 2.52 2.32 2.16 2.23 2.36 2.51 2.51 2.54 2.76 2.82 2.68 2.40 2.07 1.91 1.74 1.56 1.32 1.36 1.28 1.19 1.09 1.05 0.99 0.96 0.94 0.93
1.76 1.93 2.00 1.99 1.96 1.91 1.76 1.88 2.02 1.90 1.91 1.80 1.75 1.71 1.59 1.71 1.90 2.09 2.05 2.29 2.39 2.37 2.46 2.54 2.74 3.13 3.13 2.90 2.43 2.16 2.06 1.99 1.77 1.48 1.38 1.20 1.10 1.00 1.00 1.04 1.01 0.96 0.91
2.25 2.31 2.22 2.18 2.12 1.89 1.98 1.99 1.98 2.00 2.07 1.99 1.90 1.85 1.68 1.58 1.62 1.73 1.79 1.95 2.17 2.23 2.31 2.48 2.63 2.88 2.96 2.86 2.61 2.35 2.13 1.99 1.80 1.59 1.51 1.42 1.25 1.16 1.06 0.96 1.06 1.04 1.01
2.47 2.47 2.51 2.44 2.32 2.34 2.29 1.97 1.91 1.91 1.99 1.99 2.07 2.09 1.75 1.49 1.66 1.61 1.70 1.72 1.69 1.79 1.95 2.15 2.35 2.48 2.78 2.89 2.83 2.45 2.28 2.11 1.82 1.68 1.65 1.54 1.44 1.26 1.08 1.02 1.10 0.98 0.97
2.47 2.41 2.31 2.20 2.16 2.13 2.10 1.84 1.72 1.62 1.72 1.77 1.78 1.80 1.78 1.65 1.57 1.61 1.60 1.50 1.40 1.41 1.52 1.58 1.69 1.97 2.32 2.75 2.97 2.71 2.57 2.37 2.09 1.82 1.59 1.52 1.46 1.34 1.15 1.06 1.14 1.01 0.90
2.29 2.20 2.10 2.07 2.03 2.02 2.02 1.82 1.71 1.54 1.54 1.54 1.55 1.58 1.62 1.54 1.58 1.53 1.42 1.38 1.33 1.27 1.28 1.33 1.34 1.50 1.80 2.15 2.56 2.70 2.43 2.12 1.91 1.68 1.56 1.45 1.34 1.41 1.38 1.21 1.14 1.17 0.99
2.34 2.26 2.19 2.20 2.19 2.20 2.29 2.02 1.85 1.69 1.70 1.70 1.76 1.74 1.70 1.58 1.54 1.41 1.28 1.27 1.19 1.12 1.18 1.16 1.11 1.13 1.24 1.54 1.98 2.15 2.23 2.04 1.79 1.64 1.38 1.36 1.31 1.37 1.41 1.20 1.02 1.00 0.96